GFSNW_sfc_rhum_000.txt.gz
RH
90 95 98 91 93 91 63 53 42 54 58 41 40 38 33 49 35 34 36 37 38 39 43 44 43 44 40 41 39 40 43 47 40 34 39 38 37 40 38 49 45 54 62 45
94 98 98 92 92 90 44 40 41 48 53 66 75 42 40 37 36 38 36 41 39 39 45 51 45 45 47 46 40 43 42 50 38 38 42 38 41 39 42 48 57 61 82 45
98 99 98 97 91 92 48 40 72 47 40 42 38 41 42 42 38 41 38 41 38 42 45 44 52 49 48 49 45 76 57 46 44 33 31 34 37 34 36 42 70 54 51 40
98 98 97 92 91 92 50 45 57 54 67 54 41 39 38 40 41 37 36 38 37 42 56 48 51 46 46 46 62 53 48 51 50 40 37 36 41 40 36 40 46 62 49 37
98 98 97 91 92 91 48 48 51 48 50 48 41 57 41 37 40 36 39 39 40 34 40 33 43 36 39 37 48 48 51 58 66 60 46 40 49 40 38 41 42 44 43 44
98 99 98 90 93 80 46 58 52 43 69 50 52 49 40 38 40 45 35 37 40 55 37 36 44 46 48 46 46 55 62 71 76 85 60 62 85 52 38 37 40 40 51 38
98 98 93 91 93 83 52 54 45 71 76 60 44 41 39 40 40 46 44 38 62 45 46 46 45 46 50 53 60 57 94 82 92 99 92 92 46 33 34 41 38 32 34 41
94 94 94 92 93 94 58 59 47 63 100 55 49 44 45 45 46 48 44 53 53 46 48 67 100 67 95 80 63 63 62 85 100 100 73 53 42 39 43 45 44 39 47 49
94 94 95 94 92 95 65 69 61 53 88 75 39 46 43 55 58 60 67 59 56 53 79 88 99 73 57 48 56 67 68 79 93 93 99 93 49 39 40 42 57 51 64 76
94 94 95 95 93 93 67 73 77 48 86 49 47 50 51 47 52 57 63 63 75 60 100 100 99 75 58 57 87 90 95 97 98 91 97 70 42 44 44 84 80 68 80 82
93 94 94 96 93 94 72 81 80 59 74 55 54 50 54 51 47 72 67 66 77 94 100 100 95 100 73 66 51 63 65 94 97 96 100 96 43 45 83 65 76 83 80 71
94 94 94 96 93 93 84 63 76 77 64 62 73 68 55 52 37 50 69 58 60 68 90 99 100 100 100 98 83 50 67 59 59 65 67 43 42 52 53 68 79 71 74 63
97 95 94 96 92 92 83 68 79 69 97 73 66 63 61 58 50 48 66 76 57 64 64 87 100 100 83 100 90 94 50 48 71 73 56 49 54 50 59 70 78 76 73 56
98 97 96 98 92 91 87 78 75 74 86 100 76 59 60 57 60 56 54 60 68 68 74 100 100 100 64 99 72 70 54 53 62 76 64 58 51 64 77 74 78 79 54 46
98 99 99 99 93 92 85 85 82 77 73 97 86 68 64 61 62 60 58 61 70 89 100 100 100 90 88 92 93 86 50 54 86 97 70 71 71 72 69 81 68 49 43 38
98 99 99 98 94 93 78 81 79 80 76 97 100 72 70 64 62 67 66 64 77 80 91 99 88 67 79 100 100 72 52 51 67 73 65 64 68 69 59 55 44 39 36 34
99 99 99 99 96 87 82 78 82 86 78 100 100 96 75 71 70 73 69 78 78 85 93 100 92 84 79 100 99 60 60 61 65 69 70 72 60 59 50 47 38 42 37 37
99 99 99 98 95 95 94 89 92 86 89 96 100 100 98 72 95 99 83 96 90 93 91 99 98 88 98 100 65 62 57 63 63 63 61 59 53 49 44 39 39 43 37 33
99 99 98 97 99 100 98 95 91 90 83 99 100 100 100 78 94 96 96 90 100 90 100 100 96 100 98 80 68 67 72 74 63 54 52 48 48 44 41 40 35 36 40 40
98 98 99 100 100 98 97 96 100 100 100 97 100 87 100 78 100 100 100 100 100 100 99 84 100 98 74 62 72 66 65 59 55 65 64 56 50 36 37 38 40 42 43 53
99 100 100 100 98 95 97 100 100 100 100 99 99 99 100 95 100 100 100 100 100 100 91 98 99 83 72 61 69 60 57 54 51 43 39 37 38 40 45 51 53 61 65 67
99 98 98 98 97 100 100 100 100 100 99 100 100 100 97 100 94 98 100 100 100 99 75 99 89 62 58 58 57 56 53 43 36 36 35 40 44 49 58 59 60 69 80 91
97 97 100 98 100 100 100 100 100 100 100 97 100 100 100 98 97 100 100 100 98 80 98 80 64 59 55 54 55 57 46 47 56 38 41 48 53 60 71 81 82 95 85 80
99 100 100 100 100 100 97 96 100 100 100 100 100 100 99 100 98 99 100 92 84 94 93 90 64 50 40 46 55 45 42 84 67 54 55 79 92 89 95 94 94 94 92 88
89 97 100 99 98 100 100 100 100 100 97 98 100 98 84 99 99 95 97 98 91 79 77 69 61 49 48 54 51 46 66 94 79 54 76 100 95 92 88 91 94 92 97 96
83 94 100 99 100 100 100 100 100 96 100 99 92 98 100 99 93 97 94 81 72 74 84 73 54 57 60 59 66 57 56 62 58 59 66 75 93 95 79 88 96 97 99 97
99 99 98 99 100 100 100 100 100 96 99 100 88 97 92 87 92 92 75 80 78 80 67 56 60 60 60 56 61 84 74 64 62 63 69 72 85 97 95 95 70 82 94 100

GFSNW_sfc_rhum_003.txt.gz
RH
92 98 97 91 92 89 76 40 33 46 48 33 37 36 27 42 26 27 28 26 26 28 30 32 32 33 33 31 30 32 33 34 40 24 30 30 28 31 29 46 39 43 52 43
98 96 97 92 91 90 34 29 35 42 48 60 64 35 33 28 28 27 28 33 30 29 33 41 34 36 39 36 33 39 34 42 39 30 36 30 31 29 29 37 48 54 74 44
98 96 95 91 91 89 50 30 59 38 36 31 31 34 32 36 30 32 29 32 30 33 35 32 40 40 41 41 37 70 52 34 36 39 28 24 30 25 23 31 54 50 46 34
98 96 95 91 91 89 49 33 43 40 52 44 32 30 30 32 34 29 27 32 30 34 43 37 39 34 40 38 61 42 38 45 39 33 26 24 26 28 26 26 30 50 44 32
98 98 94 90 91 92 36 33 41 36 40 34 34 47 32 29 30 29 30 31 29 28 40 26 34 27 28 31 38 37 38 54 56 51 30 27 34 26 24 25 30 30 30 32
98 98 91 89 91 87 33 39 40 36 59 41 44 40 31 28 34 37 24 28 28 44 31 33 35 36 36 34 38 44 51 59 59 73 50 55 83 47 28 27 27 34 46 33
94 91 92 90 92 90 38 40 34 63 66 49 36 31 30 31 30 36 29 26 45 41 33 35 37 39 39 41 46 43 72 64 86 95 89 92 40 26 26 31 30 26 26 29
92 92 93 91 91 93 42 40 38 56 100 40 36 34 32 35 35 36 38 43 38 35 37 59 79 68 92 72 45 46 47 71 94 99 64 47 37 34 36 42 42 29 38 45
92 93 94 93 91 92 50 51 53 45 85 71 30 37 37 47 50 52 55 50 45 45 68 79 98 67 44 47 51 48 56 70 81 93 98 91 51 32 33 36 56 48 50 57
92 92 93 94 92 91 62 57 70 40 77 38 34 44 45 34 41 47 53 55 65 48 96 99 98 64 44 48 81 90 92 94 97 85 98 65 35 37 37 69 73 58 61 69
92 92 92 95 92 91 72 60 65 56 61 48 42 39 44 42 37 70 54 58 65 80 100 100 88 100 62 57 38 57 69 93 97 90 99 89 36 39 75 55 49 61 70 70
93 92 91 94 92 91 88 48 54 57 50 55 54 53 49 46 34 39 56 45 54 55 76 94 98 100 98 85 72 33 56 52 60 59 57 37 44 68 53 50 60 68 71 71
95 94 92 94 91 91 85 51 55 49 92 59 51 49 52 41 42 40 57 63 41 51 50 82 98 100 80 100 77 71 41 32 62 66 43 39 48 48 51 60 63 66 65 58
97 96 94 94 91 91 93 55 56 52 74 100 69 48 52 50 47 43 43 45 56 53 59 100 100 100 53 96 59 57 47 42 52 60 43 42 44 60 58 54 59 63 52 42
99 98 98 97 89 89 69 60 59 59 63 93 81 54 52 49 51 49 47 51 57 71 99 100 97 76 71 78 83 71 41 46 69 74 51 64 67 65 54 54 56 55 41 37
98 99 98 98 94 91 61 60 59 60 61 94 100 64 58 53 52 54 54 50 53 54 76 95 68 50 66 100 90 46 40 38 40 56 56 73 66 58 55 48 42 38 36 35
98 99 99 99 97 76 72 64 72 81 62 100 100 89 66 59 57 59 58 64 60 64 81 97 88 74 67 100 92 43 41 42 47 53 59 74 69 58 45 43 38 41 33 29
99 99 99 97 96 95 82 71 85 80 66 87 100 99 95 63 90 98 66 85 84 79 72 93 92 71 90 100 56 45 42 45 50 58 68 57 45 42 39 34 32 31 27 26
99 99 98 94 97 99 87 94 88 72 76 94 100 100 100 66 85 92 93 86 100 84 100 98 85 99 98 68 51 51 50 55 61 47 42 42 40 36 32 28 26 28 30 29
99 99 100 100 100 98 96 86 95 98 96 90 100 81 98 64 98 100 99 100 100 100 99 88 100 98 66 55 52 51 51 48 47 53 55 48 45 32 29 29 29 31 34 46
99 100 100 100 98 96 96 100 100 100 100 99 96 97 96 82 95 100 100 100 100 100 98 99 100 87 62 54 57 52 48 44 43 40 37 30 29 30 33 39 46 51 51 56
99 99 97 98 98 100 100 100 100 100 98 99 100 98 83 99 92 99 100 100 100 100 75 100 91 57 52 53 56 51 46 42 35 29 28 29 29 34 47 53 53 52 67 93
96 96 100 99 100 100 100 100 100 100 100 99 100 100 100 99 97 100 100 100 100 80 97 78 59 49 46 49 48 47 39 41 43 29 28 33 37 48 66 73 72 96 74 68
98 100 100 100 100 100 100 100 100 100 100 100 100 100 100 100 100 100 100 98 87 98 95 92 57 52 45 46 50 48 44 83 59 44 44 56 85 84 98 100 99 99 89 80
97 99 100 100 100 100 100 100 100 100 98 100 100 100 89 100 100 100 96 99 95 83 78 67 55 49 46 54 49 44 52 96 78 43 57 100 100 95 83 86 90 85 100 100
81 97 100 100 100 100 100 100 100 93 98 99 95 100 100 100 99 99 100 96 81 77 80 68 51 52 51 50 51 52 48 51 47 45 48 62 94 100 75 80 92 100 100 100
99 99 100 100 100 100 100 100 100 91 100 100 99 100 100 92 96 92 70 86 82 82 70 51 52 51 49 52 56 84 68 58 53 53 55 60 72 92 96 94 67 67 78 100

GFSNW_sfc_rhum_006.txt.gz
RH
96 94 92 92 92 91 70 52 38 52 55 35 34 42 26 40 24 24 25 22 21 24 26 27 29 32 34 27 26 31 29 32 60 26 24 23 24 28 27 70 50 62 66 44
98 93 91 90 91 90 47 37 44 47 50 56 71 32 27 22 23 22 24 28 26 26 30 38 31 40 36 34 36 44 35 45 58 38 36 27 26 26 26 41 64 62 83 54
98 94 92 90 90 90 53 37 60 39 38 40 39 36 34 34 26 28 25 27 26 30 34 30 36 43 40 37 38 66 54 31 37 51 30 24 28 23 22 27 72 62 56 38
98 98 92 90 91 90 53 38 43 31 51 46 33 30 27 32 35 26 26 28 27 31 44 35 36 37 39 34 55 39 37 47 39 33 26 24 25 25 24 26 30 50 42 32
99 96 92 89 92 96 49 44 40 37 36 36 33 44 30 28 25 30 28 29 28 28 42 31 34 28 28 34 36 35 38 69 66 58 27 28 35 28 26 24 24 27 30 33
97 91 92 89 92 88 37 38 40 37 56 38 45 42 31 27 32 34 22 25 30 50 36 36 35 35 34 32 38 44 53 74 76 79 55 63 88 56 28 27 26 31 52 36
89 92 92 90 91 93 58 46 35 70 68 47 36 32 27 27 32 34 26 25 49 38 31 37 40 41 40 38 41 40 72 77 93 94 92 89 38 26 26 32 28 26 26 33
92 93 93 91 90 92 51 44 47 61 100 47 33 32 29 31 32 32 42 37 34 33 35 69 72 81 88 66 40 41 44 80 95 100 71 51 39 35 40 46 46 32 39 46
92 93 94 91 90 91 58 63 67 53 87 65 28 32 35 47 50 53 54 44 38 38 81 94 98 79 50 58 51 45 54 76 91 95 92 81 53 34 34 37 65 48 54 59
92 93 94 94 90 90 73 66 74 63 77 36 37 42 48 38 48 56 55 56 66 45 98 100 99 73 39 60 80 95 92 94 97 94 93 73 36 34 37 67 75 58 62 62
89 92 93 94 91 90 77 67 64 69 71 49 41 37 38 36 44 78 54 62 71 95 100 100 94 100 77 66 41 74 84 94 96 88 94 84 36 37 69 64 61 58 57 60
91 90 93 94 92 90 90 55 56 61 63 60 55 54 51 49 44 46 57 49 59 68 85 92 98 99 99 91 80 29 62 66 73 68 73 48 41 51 51 68 64 71 66 59
95 93 93 94 93 90 89 59 62 59 92 61 55 51 48 42 50 51 67 76 43 53 54 88 98 100 88 99 83 69 36 30 76 70 45 38 42 44 59 57 59 56 56 59
96 95 95 93 93 90 94 59 62 59 82 100 73 47 49 48 43 41 47 53 60 63 72 100 100 100 59 96 70 72 54 42 51 60 43 42 44 59 59 63 58 59 53 50
99 98 99 99 92 92 80 60 60 59 73 96 84 51 49 45 47 45 49 59 64 79 99 100 99 85 86 94 91 86 47 47 70 77 50 60 63 60 58 62 59 51 47 39
99 99 98 98 99 95 68 63 60 58 62 96 100 61 57 51 51 50 51 56 60 64 84 97 78 59 82 100 96 54 39 33 38 49 53 60 63 54 51 51 42 38 38 36
99 98 97 98 98 78 77 75 81 87 72 100 100 94 63 57 53 58 59 59 64 66 81 97 92 83 68 100 99 49 37 35 37 49 56 62 60 60 51 42 38 41 32 27
99 100 99 98 97 91 82 78 85 86 69 90 100 100 95 61 95 99 70 95 86 84 77 90 95 78 93 99 63 49 41 39 49 52 55 55 47 49 39 35 31 29 26 28
99 99 98 90 91 90 82 94 94 75 78 96 100 100 100 66 95 95 96 86 100 82 100 96 88 100 98 72 54 44 42 49 51 51 48 43 42 37 33 29 27 29 32 33
99 97 100 100 100 96 93 81 88 97 94 92 100 78 99 70 100 100 100 100 100 100 100 93 100 94 62 48 46 47 52 49 50 60 60 46 46 36 30 30 31 35 43 50
99 100 100 99 97 91 96 100 100 100 100 100 96 94 96 82 96 100 100 100 100 100 95 99 99 95 69 58 54 52 50 48 45 43 43 35 31 31 35 48 62 67 66 70
99 99 97 97 97 99 100 100 100 100 94 99 100 99 89 99 83 98 99 100 100 100 88 100 96 66 52 56 58 53 47 45 40 33 30 31 30 36 60 66 69 69 81 88
95 96 100 98 100 100 100 100 100 100 100 100 100 100 100 99 96 100 100 100 100 100 100 90 75 60 52 56 55 49 43 51 49 30 31 38 41 52 74 80 79 90 84 78
98 100 100 100 100 100 100 100 100 100 100 100 100 100 100 100 100 100 100 100 100 98 97 90 82 56 51 53 57 47 48 71 63 62 62 64 87 89 92 100 98 95 92 84
99 100 100 100 100 100 100 100 100 100 99 100 100 100 100 100 100 100 100 99 96 95 97 94 83 74 66 70 59 58 71 88 84 63 66 86 89 92 88 89 92 89 97 98
84 98 100 100 100 100 100 100 100 98 100 100 100 100 100 100 100 99 99 96 95 100 97 84 69 72 72 66 62 65 62 64 66 66 64 68 85 91 81 83 95 95 96 99
99 98 100 100 100 100 100 100 100 95 100 100 100 100 98 95 96 96 95 98 100 97 87 76 72 69 68 63 66 90 80 75 70 67 67 69 75 91 94 91 79 81 84 100

GFSNW_sfc_rhum_009.txt.gz
RH
99 92 91 91 91 87 75 81 70 78 80 61 74 70 46 41 31 33 34 36 31 37 35 42 44 52 46 39 44 43 42 51 68 42 34 31 35 41 45 79 68 83 86 63
98 93 92 90 91 86 83 70 78 73 82 77 90 53 38 32 32 34 37 38 38 35 46 50 53 56 51 50 51 60 52 54 79 60 49 38 37 32 46 64 76 63 84 71
97 96 92 90 92 87 76 79 78 79 78 71 67 50 47 44 37 38 33 36 39 43 45 44 59 59 54 53 48 69 62 46 57 72 47 37 43 34 35 60 90 80 75 53
98 95 90 91 92 86 67 70 72 61 75 65 64 52 44 46 48 40 37 43 40 44 55 52 62 56 54 53 58 55 54 70 59 49 40 36 37 36 35 36 44 67 55 51
97 91 90 91 94 94 75 75 73 62 61 47 58 62 44 45 39 40 41 42 40 44 54 58 56 50 52 56 48 55 59 87 75 72 50 48 52 45 43 38 37 38 42 49
89 93 91 90 93 93 81 69 68 74 84 59 71 62 47 45 45 47 40 44 58 66 56 57 57 54 54 55 55 67 74 81 88 88 73 83 79 62 46 43 43 45 62 54
91 93 92 89 92 95 92 87 82 88 85 78 57 46 44 46 42 47 48 53 60 56 49 52 55 54 54 52 54 60 78 88 97 93 85 73 59 39 39 47 44 43 53 61
93 94 93 90 90 91 83 86 87 92 100 78 55 45 47 47 59 62 57 52 48 51 60 82 65 83 64 64 52 60 69 92 96 97 95 64 51 46 54 58 59 62 69 68
94 94 94 90 90 90 84 95 94 91 95 80 49 48 52 75 80 79 69 61 61 68 97 88 87 88 69 76 64 69 78 85 90 98 92 86 66 48 45 50 86 71 71 76
93 93 94 92 90 90 92 94 88 91 94 67 64 66 64 65 76 87 77 78 74 79 100 100 99 87 63 82 85 93 96 94 96 94 93 86 63 47 47 79 76 78 76 77
91 93 94 94 92 90 92 90 84 90 90 74 68 69 62 63 81 88 76 78 85 100 97 99 98 100 89 80 70 85 88 96 96 90 90 93 51 50 63 71 78 77 74 78
93 94 94 94 92 91 93 90 77 82 89 84 77 72 68 62 64 76 76 66 84 93 98 100 100 98 100 96 86 62 79 83 92 82 84 62 55 58 63 74 78 82 77 68
95 95 95 95 94 92 94 92 89 93 99 86 79 77 68 59 63 65 80 89 70 80 90 96 98 98 96 96 96 75 59 59 84 78 63 56 61 71 70 74 76 70 68 66
96 98 98 99 96 94 93 93 90 94 99 100 91 59 70 61 60 58 65 68 80 88 96 99 100 98 84 99 80 87 67 61 63 76 63 61 75 76 76 70 67 69 62 64
98 99 98 99 98 96 94 92 88 86 92 98 98 68 64 57 63 64 70 77 85 97 100 100 99 98 90 99 96 98 66 65 83 85 68 75 86 76 68 71 68 68 66 50
99 98 97 98 99 98 96 96 95 88 95 99 100 85 77 69 66 69 70 77 85 94 99 100 98 82 86 99 98 74 59 53 52 67 73 81 77 64 62 66 56 50 47 45
98 97 96 98 96 97 96 94 94 98 95 100 100 99 85 74 76 93 89 85 91 90 98 100 99 96 88 98 99 72 58 47 59 72 73 80 69 72 64 51 49 49 40 38
98 98 99 96 96 97 95 95 96 98 97 99 99 98 98 79 100 100 96 100 98 96 98 99 99 96 99 100 84 69 59 56 70 71 67 64 68 61 47 44 39 37 42 47
99 98 96 95 97 99 99 97 98 96 94 100 100 100 99 90 100 100 98 99 100 97 100 100 96 100 99 90 82 70 61 62 71 66 62 61 60 45 40 38 41 47 55 57
99 95 99 100 100 96 98 92 98 100 100 99 100 98 100 93 100 100 100 100 100 100 99 98 100 98 82 69 63 65 65 63 62 74 72 61 53 46 45 47 54 58 61 64
98 100 100 99 94 98 99 100 100 99 99 100 99 99 99 95 99 100 100 100 100 99 96 99 98 97 89 73 73 66 62 58 55 48 49 45 43 48 58 64 71 70 72 71
99 98 96 96 96 99 100 100 100 100 99 100 100 100 99 100 95 99 100 100 100 98 97 100 94 89 77 74 71 64 51 45 42 42 43 46 53 62 66 67 70 76 81 90
96 95 98 96 100 99 100 99 99 100 100 100 100 100 100 99 99 100 100 100 98 99 100 97 97 71 70 66 53 51 50 59 57 49 55 55 54 60 65 75 76 92 88 86
99 100 99 99 99 99 99 99 99 100 100 100 100 100 100 100 100 100 99 99 99 99 99 98 98 93 85 66 59 52 59 69 62 61 59 62 77 87 90 97 98 98 96 89
98 99 99 99 100 100 100 100 100 99 99 100 100 100 100 100 99 100 99 99 98 99 99 100 99 90 80 75 69 65 67 81 80 67 67 79 86 90 84 89 92 91 95 98
95 95 97 100 100 100 100 100 100 99 100 100 100 100 100 99 99 99 99 98 98 99 100 96 88 81 72 70 72 73 74 73 70 71 70 74 86 87 79 84 95 96 97 97
90 97 100 99 99 98 100 100 100 99 100 100 100 99 98 100 99 98 100 99 99 99 97 96 78 76 74 72 72 83 78 74 78 78 74 74 80 89 95 90 82 88 90 92

GFSNW_sfc_rhum_015.txt.gz
RH
91 89 90 91 91 92 80 76 50 70 50 44 90 76 61 52 37 35 41 44 43 42 51 61 62 60 58 56 58 46 56 59 71 50 41 43 45 50 50 72 65 88 85 64
92 90 90 91 92 83 84 74 92 83 46 60 88 60 52 43 40 40 44 47 49 50 60 64 67 65 62 51 54 57 52 60 77 62 52 43 48 48 61 64 73 69 80 60
97 93 91 91 91 91 81 76 86 79 85 67 51 60 56 52 45 44 43 45 46 49 60 65 70 68 62 53 49 70 60 64 57 67 58 51 47 49 58 57 79 71 69 54
98 92 90 92 91 88 77 85 69 67 79 79 82 58 55 52 50 46 43 45 47 51 66 70 75 69 62 51 60 61 58 65 64 60 59 50 47 43 57 60 60 65 58 62
96 89 90 93 91 87 76 86 75 77 60 55 66 76 59 49 50 46 51 49 60 55 57 55 69 58 57 51 58 71 71 78 65 76 66 68 56 47 50 51 50 60 55 61
90 91 91 96 90 75 74 82 87 66 86 71 74 74 57 52 49 57 52 58 64 67 69 67 69 68 64 59 61 80 74 78 66 60 80 68 54 58 56 50 50 50 64 61
91 93 93 94 86 84 79 91 82 83 89 65 59 58 54 55 53 58 64 58 64 59 58 54 49 54 68 73 80 66 83 92 88 81 75 54 42 53 50 51 58 71 76 76
94 94 93 94 91 90 71 92 77 80 96 80 68 64 71 70 75 75 75 71 62 60 53 69 61 74 65 72 84 81 73 89 98 78 80 50 40 53 58 58 57 72 75 74
95 95 95 94 95 91 83 95 90 76 91 81 63 71 67 76 82 78 78 76 74 69 89 80 69 59 54 78 83 78 79 78 77 98 66 54 44 60 53 52 75 75 75 80
95 96 95 94 95 89 78 93 92 79 89 79 71 73 70 76 82 86 81 77 78 70 95 92 92 86 64 82 82 94 97 97 86 99 84 72 53 56 54 65 57 83 78 79
95 95 96 95 95 94 81 93 93 76 90 86 86 78 77 80 80 84 77 76 82 92 83 86 93 98 88 85 75 88 94 97 98 97 95 68 56 60 66 65 77 78 84 81
97 98 98 97 96 96 86 86 93 90 83 82 84 80 81 79 62 83 84 68 79 83 93 98 99 98 99 88 86 73 76 68 81 74 74 58 60 64 63 72 80 86 85 83
98 98 98 98 99 96 86 95 96 86 94 84 80 81 73 65 72 67 76 92 78 84 84 97 99 84 97 97 96 85 72 69 86 76 58 64 62 61 69 80 80 84 81 81
99 98 99 99 98 97 90 97 98 85 92 96 86 77 75 66 70 73 67 81 90 92 93 99 99 88 85 95 81 89 73 74 72 84 71 77 74 73 76 82 84 81 75 72
98 98 98 99 96 95 92 97 98 95 73 90 98 80 73 72 75 81 80 79 87 95 99 100 95 96 95 99 97 98 75 67 84 72 63 71 66 77 82 85 82 74 72 63
97 98 99 99 95 94 82 78 94 97 94 91 91 92 86 81 85 84 83 90 94 94 97 100 98 86 88 99 98 80 71 66 57 56 62 68 73 83 80 78 79 78 55 47
96 99 99 98 92 94 84 70 95 99 91 95 97 99 88 90 91 96 95 97 98 94 100 100 98 96 92 99 98 67 69 68 69 71 82 88 87 87 79 69 61 52 44 46
96 98 97 100 96 96 97 99 98 98 91 94 99 98 94 87 99 100 98 100 98 98 98 100 99 98 99 100 88 78 67 64 69 75 78 77 80 73 59 45 42 49 54 61
98 94 91 92 97 100 98 97 99 97 88 98 100 92 90 95 99 100 100 98 100 98 100 100 99 100 99 89 83 79 77 79 75 86 82 81 76 59 45 51 64 73 77 62
93 92 93 99 100 92 93 92 95 99 99 99 97 98 99 97 100 100 100 100 100 100 99 99 100 99 93 84 81 84 84 77 83 87 91 68 57 64 78 82 82 76 62 67
97 98 100 98 90 95 96 98 99 99 100 99 100 99 99 96 99 100 99 100 100 98 96 100 98 98 88 82 75 72 73 74 73 70 69 72 83 92 96 98 82 68 70 69
95 97 94 94 94 99 98 99 100 99 99 99 100 100 99 100 97 99 100 100 100 98 95 100 93 92 73 79 86 85 84 87 89 86 89 91 93 94 90 72 68 72 78 90
90 93 98 92 99 100 100 99 100 99 99 100 100 100 100 98 98 100 100 100 99 99 100 99 99 80 79 80 83 90 89 93 97 93 92 86 73 68 65 76 69 88 83 81
98 100 99 100 99 99 99 99 99 100 100 100 100 100 100 100 100 100 99 99 99 99 99 98 99 99 99 94 90 84 87 89 85 81 71 75 88 87 89 91 94 96 92 86
97 93 99 99 98 99 100 100 100 100 100 100 100 100 99 99 99 99 99 98 98 98 98 99 100 100 99 97 98 91 80 89 79 68 74 85 85 87 79 85 89 90 95 96
87 92 98 98 98 100 100 100 100 99 100 100 100 99 99 99 99 98 98 98 98 99 100 100 98 93 93 99 97 79 75 75 78 78 79 80 89 89 78 86 92 94 96 96
84 99 100 99 99 100 100 100 100 99 100 99 99 97 95 99 98 98 99 98 99 100 100 99 93 98 98 91 82 88 84 82 82 78 74 76 81 94 94 88 78 84 89 94

GFSNW_sfc_rhum_021.txt.gz
RH
87 86 90 93 93 94 96 76 63 74 63 58 75 62 54 62 44 42 44 39 41 43 50 53 51 50 46 52 51 41 44 54 56 37 37 39 37 40 44 53 49 64 59 38
85 88 92 93 94 91 90 67 92 85 60 71 83 59 52 49 42 44 44 49 47 53 59 58 59 58 57 50 46 51 48 56 59 46 38 36 38 44 46 54 60 60 82 37
87 89 92 93 94 90 79 85 94 84 70 64 55 55 54 48 48 48 45 50 51 58 61 64 67 61 57 55 52 75 58 53 50 48 38 44 46 51 44 44 60 52 54 38
88 91 92 93 93 90 82 79 82 82 84 65 56 46 52 49 51 47 45 49 48 56 66 64 68 60 50 50 67 62 51 54 52 54 54 46 37 44 49 41 44 51 41 42
91 92 93 94 94 91 85 75 74 72 77 71 56 62 58 50 49 50 49 52 56 54 59 52 66 58 50 42 58 61 60 63 54 58 60 58 51 43 44 50 50 44 46 46
96 97 94 95 94 83 80 93 76 62 84 84 66 69 62 53 55 64 54 52 57 60 60 59 64 62 64 55 62 69 62 68 60 60 62 51 60 48 44 46 47 44 50 38
98 95 94 95 90 84 78 87 76 78 82 80 65 66 59 57 53 58 61 57 58 62 61 57 53 59 69 66 70 62 68 64 68 73 71 59 37 45 41 44 42 41 41 42
95 93 95 95 89 88 84 94 74 78 98 70 68 71 74 73 76 76 72 75 65 61 56 72 67 75 76 75 69 63 59 70 81 79 59 42 27 36 50 55 37 42 41 48
93 94 95 95 90 88 91 95 86 77 85 75 57 74 70 76 81 79 85 71 64 62 79 79 79 74 60 53 72 71 64 66 72 78 65 61 41 32 47 43 60 41 51 65
96 95 95 95 90 88 88 96 86 80 88 79 70 73 72 73 77 85 79 70 74 64 84 90 79 66 56 54 68 93 98 95 83 81 79 58 41 41 46 55 53 54 63 64
98 97 95 92 88 88 86 95 94 73 92 89 83 71 75 76 76 83 80 76 80 85 88 90 80 91 75 68 58 81 74 91 91 85 78 69 45 51 61 56 55 54 65 66
98 99 96 89 84 86 88 87 97 88 85 85 85 80 80 78 62 79 85 69 76 76 86 90 94 100 98 82 75 72 70 68 72 63 65 51 48 58 52 56 53 54 66 62
99 99 98 86 82 88 82 93 96 83 94 83 81 82 76 75 79 70 77 84 74 73 74 88 93 93 88 94 86 76 68 61 72 67 52 55 53 49 52 49 55 55 61 61
99 99 99 98 91 92 80 87 98 79 89 100 87 76 81 77 80 74 72 78 84 84 81 97 99 97 79 90 75 80 67 67 69 72 62 57 52 57 54 54 59 62 62 66
99 94 95 93 92 90 90 96 98 94 67 96 96 82 78 81 81 79 75 73 79 87 93 100 95 89 91 95 92 87 69 65 77 71 50 52 50 44 54 63 63 65 70 76
99 99 95 90 90 87 86 73 90 94 90 91 99 89 88 86 85 87 91 88 88 84 85 96 87 84 84 100 89 63 60 59 54 52 55 54 56 54 58 64 68 74 72 59
96 93 92 93 93 93 74 69 88 92 90 94 98 98 85 90 90 96 95 94 94 89 98 99 97 97 84 99 91 80 79 73 70 65 69 71 68 71 76 65 53 56 57 63
95 95 94 94 94 95 95 98 95 93 80 87 95 97 97 89 99 99 96 99 97 98 97 98 99 97 98 99 88 80 74 74 74 76 77 76 66 55 51 52 64 80 88 89
90 91 93 90 96 99 97 94 93 92 82 95 94 91 93 90 99 99 99 96 100 94 100 100 94 100 100 95 91 92 91 91 86 77 60 62 69 70 74 84 91 95 97 97
88 88 88 100 100 91 86 86 91 95 100 98 100 92 100 92 100 100 100 100 100 100 98 98 100 100 87 95 95 94 89 85 78 82 89 91 95 95 96 96 96 96 97 95
95 99 100 98 89 88 94 99 99 96 98 99 99 98 98 95 99 100 100 100 100 97 92 100 100 98 87 90 94 89 87 87 90 92 95 96 96 96 97 98 95 92 88 85
93 96 92 90 91 93 95 100 100 99 98 100 100 100 98 100 95 98 100 100 100 97 95 100 98 96 98 97 96 86 78 79 81 81 85 86 82 79 82 84 84 82 85 94
89 90 91 89 98 98 88 99 100 100 100 100 100 100 100 98 98 100 100 100 99 98 100 99 99 99 99 99 98 93 76 78 76 73 76 78 79 81 84 86 84 92 88 84
96 96 99 96 100 99 99 100 100 100 100 100 100 100 100 100 100 100 100 100 99 100 98 97 100 100 100 99 99 88 86 90 83 74 72 78 87 86 88 92 92 93 88 86
98 96 99 98 100 99 100 100 100 100 100 100 100 100 98 100 99 98 96 96 96 93 93 95 98 99 100 98 89 75 75 88 81 74 80 92 90 86 80 84 85 84 92 92
99 99 99 100 99 100 100 100 100 99 100 100 100 99 98 98 98 97 95 95 94 93 98 99 98 99 100 98 84 78 83 81 80 80 77 80 89 91 84 86 90 93 94 94
93 99 100 100 100 100 100 100 100 99 100 100 98 97 96 97 96 96 95 96 94 98 99 99 99 98 98 98 96 92 81 78 80 83 87 88 88 93 91 92 84 86 86 96

GFSNW_sfc_rhum_024.txt.gz
RH
92 93 89 88 92 93 87 57 50 72 60 56 42 38 30 48 30 34 26 25 26 26 29 31 25 28 28 35 30 29 30 32 42 31 29 29 27 26 24 32 33 44 44 22
92 95 89 89 93 89 65 50 59 64 53 57 61 38 30 37 29 29 30 29 28 33 35 37 37 37 41 37 34 34 33 37 43 38 32 29 30 28 26 34 39 39 65 21
91 95 89 92 93 86 54 46 70 70 48 37 37 36 33 32 34 32 32 35 36 38 40 42 46 44 42 39 36 70 46 36 34 38 27 26 34 33 26 25 40 28 31 15
92 94 90 92 91 86 64 50 49 46 59 46 38 32 30 28 37 32 32 36 32 34 47 43 46 42 38 40 64 46 38 38 36 32 33 32 28 28 29 26 25 36 18 20
92 93 90 90 91 88 64 50 52 52 44 39 36 43 35 26 34 33 32 34 36 37 40 32 43 39 35 34 44 42 42 45 43 44 40 37 36 27 25 26 25 27 22 22
93 92 90 92 92 84 51 56 48 37 67 42 39 36 29 28 37 47 34 33 38 43 42 43 40 40 36 33 41 48 46 51 47 42 43 41 72 39 27 24 26 29 32 23
91 90 92 93 92 86 40 51 40 52 64 47 33 30 30 35 34 43 44 38 39 51 41 38 39 42 42 41 47 41 53 48 59 68 70 82 21 25 24 26 23 20 22 18
93 94 94 94 93 88 60 57 44 53 99 45 38 33 32 46 48 53 48 54 46 42 42 52 55 66 81 63 48 44 39 49 76 92 44 28 14 23 28 33 22 20 21 20
96 94 94 94 93 86 69 62 57 47 80 62 33 38 44 50 52 59 64 54 47 42 56 68 74 64 44 50 56 49 43 46 56 73 89 89 28 30 34 33 36 24 29 32
95 94 94 94 94 85 76 69 74 45 66 46 46 43 48 45 50 56 59 56 59 48 76 97 81 59 41 44 62 89 83 86 89 72 92 47 25 25 36 43 34 32 36 36
93 94 95 95 91 86 77 77 77 53 68 57 59 49 53 54 48 64 58 56 61 69 92 92 69 90 53 45 36 55 60 80 92 77 97 80 30 38 46 37 36 37 35 37
95 95 96 94 90 85 83 70 76 66 56 65 64 66 61 56 42 50 56 50 52 48 68 83 87 97 96 65 59 48 54 47 51 46 44 33 34 34 33 40 41 39 41 34
98 97 95 92 88 84 82 71 78 67 78 64 58 62 61 58 62 54 54 62 50 53 57 67 84 100 67 97 64 56 46 44 54 50 29 32 33 32 31 31 35 33 32 35
98 96 93 89 84 85 78 65 74 68 74 100 76 57 66 62 59 57 55 56 61 57 54 92 99 98 57 74 54 55 44 48 48 52 39 33 30 31 34 34 37 40 38 41
97 94 88 86 86 90 78 81 89 71 54 92 82 66 66 62 57 56 54 54 53 60 82 100 91 68 75 82 73 67 44 43 60 55 42 43 37 36 40 45 45 48 52 51
94 91 90 89 87 83 68 65 80 71 63 78 98 70 71 66 63 64 67 60 60 54 64 90 62 65 67 98 70 62 59 57 57 57 53 54 50 47 54 57 52 50 51 51
94 91 91 90 90 80 58 62 80 86 71 85 100 88 71 74 68 78 72 72 71 63 82 96 86 76 60 97 78 70 62 57 56 58 60 56 60 61 50 52 55 62 62 67
93 93 93 92 93 93 80 77 88 84 56 67 97 95 91 73 95 97 84 94 83 86 93 94 94 88 89 92 76 68 65 62 61 58 55 59 49 50 55 58 67 84 90 89
94 94 95 81 89 88 78 93 90 70 60 80 100 100 98 79 93 94 92 84 100 84 100 96 83 99 96 91 84 85 82 81 73 63 58 59 68 81 91 90 90 94 98 95
89 78 75 96 95 90 81 66 76 82 86 86 100 84 98 76 99 100 99 99 100 100 97 95 100 98 91 93 91 87 83 70 64 75 93 97 97 95 95 95 90 76 65 64
84 96 98 86 85 67 78 92 89 82 100 93 94 87 92 87 94 100 100 100 100 100 87 98 100 96 91 92 90 85 84 90 93 92 90 81 80 88 83 70 70 72 76 76
87 87 83 75 74 82 97 100 100 96 96 99 100 99 92 100 87 94 96 100 100 98 82 100 98 95 96 94 88 80 75 70 67 61 62 62 61 63 68 68 66 67 74 93
77 80 98 84 99 100 100 100 100 100 100 99 100 100 100 96 90 100 100 100 100 85 98 97 94 98 99 95 72 64 58 61 59 54 52 53 58 63 70 78 72 95 68 68
91 100 100 100 100 99 100 100 100 100 100 100 100 100 100 100 100 100 100 100 100 100 100 98 99 99 98 84 77 63 59 87 64 58 59 68 71 71 91 100 97 100 82 79
94 93 100 100 100 100 100 100 100 100 99 100 100 100 93 100 100 100 100 100 98 90 89 92 98 98 98 99 73 65 64 89 76 65 72 96 92 81 77 81 75 80 95 92
99 100 100 100 100 100 100 100 100 99 100 100 100 100 100 100 100 100 100 98 90 96 98 99 99 100 99 78 64 71 73 68 65 68 71 82 91 92 76 77 77 86 86 89
100 100 100 100 100 100 100 100 100 98 100 100 100 100 99 94 96 98 87 99 94 98 100 97 92 95 94 86 87 89 74 70 73 74 73 75 74 77 69 64 55 57 60 79

GFSNW_sfc_rhum_027.txt.gz
RH
82 88 88 94 94 91 84 65 57 58 61 53 53 45 30 27 20 25 19 20 17 19 19 20 17 19 18 19 20 21 20 22 32 25 22 20 21 22 22 36 29 33 42 24
79 85 89 92 94 87 60 65 59 71 55 64 67 36 27 22 23 25 23 20 20 17 20 25 20 18 35 31 27 22 26 26 36 31 26 22 22 19 20 20 30 32 54 24
80 87 91 92 94 84 60 50 63 76 66 40 42 38 30 29 23 22 19 17 22 25 26 26 27 27 34 35 28 62 42 25 28 36 25 20 28 21 19 23 37 30 24 16
85 89 91 94 94 83 63 57 42 45 64 52 41 34 28 27 30 25 24 26 24 25 31 30 32 28 35 35 59 34 32 35 27 23 23 22 21 18 20 21 20 29 22 13
84 90 92 97 92 81 76 60 36 36 43 43 39 41 31 24 23 27 29 25 22 21 26 27 29 30 30 32 37 35 31 36 36 40 28 27 27 21 17 16 17 15 14 15
91 91 90 95 90 80 65 56 45 37 56 46 42 37 28 23 26 37 24 23 24 30 31 33 32 29 27 26 36 39 38 40 43 36 32 31 63 36 24 18 16 19 26 18
87 87 91 95 86 74 44 54 48 56 62 44 35 27 25 23 27 34 30 25 29 40 31 31 31 31 31 32 37 32 45 44 52 55 69 82 17 16 15 20 16 14 14 13
90 92 91 92 89 86 51 66 54 50 99 35 28 26 27 24 32 34 36 42 34 34 32 44 54 60 68 43 33 30 31 42 63 90 41 25 17 13 20 22 19 15 17 15
93 93 89 94 89 87 86 72 51 41 68 48 22 25 24 37 44 52 54 43 37 39 47 61 54 53 38 46 46 34 34 38 50 57 86 88 32 22 23 23 32 19 19 20
92 92 94 92 88 86 86 66 68 32 38 26 27 30 30 27 36 43 55 54 53 43 74 96 67 53 33 46 58 89 75 79 81 66 83 49 21 21 26 40 41 28 25 24
95 94 93 90 87 90 88 63 61 37 44 41 39 25 30 27 34 58 50 51 54 58 78 86 64 82 50 43 29 51 58 74 90 71 98 79 22 26 37 37 27 25 28 28
96 93 91 90 90 93 89 62 55 45 41 57 51 56 50 38 27 32 50 35 46 44 51 76 79 96 94 56 52 32 48 40 50 41 44 29 24 24 23 27 32 31 31 29
94 93 92 92 95 91 92 57 55 45 62 57 51 53 54 47 50 50 46 50 36 41 46 58 76 100 63 95 58 45 34 33 45 43 22 22 22 22 24 26 29 28 29 32
93 94 94 95 94 90 94 56 54 44 63 99 69 50 58 52 47 45 49 45 51 49 48 88 96 97 46 68 48 46 38 36 35 39 29 25 24 26 32 35 36 36 36 39
97 96 96 94 91 87 76 57 62 51 41 86 78 58 56 48 46 45 45 49 49 52 76 96 86 57 66 70 61 58 34 34 56 55 40 49 41 39 46 46 48 46 46 46
97 96 94 91 87 84 58 69 58 62 46 74 94 62 62 53 47 47 47 46 44 41 59 85 50 52 58 98 64 49 47 47 48 48 49 50 49 46 44 50 50 48 50 47
96 94 91 87 83 59 72 47 68 80 52 81 96 86 65 59 53 60 54 52 54 47 63 87 67 59 54 95 70 57 53 50 49 50 51 54 49 51 50 54 58 66 68 69
89 89 86 85 91 90 67 70 87 73 50 55 95 95 90 62 84 93 65 83 64 74 80 80 86 71 80 80 63 58 54 52 56 50 46 47 48 53 62 62 64 71 79 84
91 89 92 72 71 72 69 94 85 70 66 72 100 100 99 64 79 84 86 69 100 73 100 86 74 93 90 80 70 65 65 64 60 54 56 64 72 76 70 66 70 74 77 69
96 63 53 84 88 93 86 67 72 72 72 73 100 74 94 66 94 97 94 96 98 97 94 75 98 95 87 82 75 69 68 60 62 90 96 90 82 75 67 61 54 49 52 54
68 85 95 85 85 65 74 87 84 70 94 83 86 76 87 77 93 99 98 100 98 100 86 92 100 93 88 86 80 73 76 72 72 73 74 63 63 62 60 59 63 65 62 64
84 81 74 70 66 78 96 100 100 90 93 96 98 97 80 96 75 87 93 99 94 98 71 98 95 94 94 85 81 73 62 61 63 59 58 55 54 54 52 51 58 66 65 92
67 71 97 76 98 100 100 100 99 99 100 98 99 100 96 92 84 100 94 100 99 74 99 84 94 95 92 84 71 60 52 53 53 49 46 46 53 61 66 68 71 88 66 70
86 100 100 100 100 100 100 100 100 100 100 100 100 100 99 100 100 100 100 100 97 100 100 98 99 98 96 78 62 56 53 84 53 51 56 65 64 74 89 99 98 98 77 73
88 88 100 100 100 100 100 100 100 99 98 100 100 98 88 100 100 100 100 100 98 91 96 100 98 98 93 78 64 54 64 88 69 57 75 100 94 73 72 72 65 74 86 85
91 98 100 100 100 100 100 100 100 99 100 100 94 100 100 100 100 100 100 99 93 99 96 99 97 98 96 78 61 60 65 64 62 66 73 82 87 91 69 63 61 90 81 82
100 100 100 100 100 100 100 100 100 98 100 100 100 100 100 94 99 99 96 100 96 99 97 97 97 96 87 66 78 91 73 66 67 68 69 69 64 64 56 53 49 48 50 73

GFSNW_sfc_rhum_030.txt.gz
RH
83 84 82 87 95 95 98 69 70 59 65 70 51 64 41 35 24 16 20 18 15 16 17 18 16 18 16 15 16 22 18 24 37 24 17 17 19 24 22 61 38 46 63 39
82 85 78 87 93 94 94 66 62 71 64 63 64 50 41 28 25 22 24 20 18 16 19 21 18 16 31 27 23 27 24 30 44 28 23 21 22 18 18 23 39 46 79 38
77 84 77 84 93 92 89 65 84 98 88 40 47 53 42 34 24 19 20 20 17 20 20 19 22 21 33 32 26 58 43 26 26 43 25 22 30 23 16 22 66 47 39 20
87 81 76 78 95 93 98 77 58 63 88 69 48 46 36 33 30 21 20 22 18 24 29 22 28 22 36 32 53 33 31 33 25 20 19 22 24 20 18 19 24 39 31 18
86 76 78 78 93 94 98 72 50 51 48 54 50 53 44 30 24 24 26 24 20 23 26 25 28 25 33 33 38 33 31 43 37 40 27 25 29 23 21 18 16 17 16 17
78 77 80 81 92 95 96 58 54 61 58 54 55 53 43 32 26 26 21 23 24 27 26 30 32 33 31 26 39 40 39 52 56 62 34 35 59 36 25 20 17 19 27 22
79 84 87 86 90 94 84 54 61 84 65 49 46 45 35 27 26 34 24 24 29 34 28 30 31 30 30 32 34 31 44 52 72 80 74 74 23 16 15 19 16 14 13 15
83 81 88 87 87 94 86 70 83 87 94 42 38 43 37 27 25 31 28 39 34 34 36 53 59 69 70 50 30 32 32 55 81 98 61 33 23 16 19 22 21 17 18 18
86 88 87 91 86 91 92 88 92 90 80 57 31 34 31 36 44 51 53 39 38 39 54 77 66 69 41 42 42 28 30 43 77 76 91 86 36 22 19 19 45 22 24 26
87 87 87 89 91 88 88 92 91 98 85 39 37 35 37 33 47 55 54 52 53 47 93 98 84 67 30 56 66 91 80 90 91 79 96 64 24 22 23 50 56 30 29 30
89 90 90 91 90 85 89 90 90 99 94 41 34 27 31 35 44 70 55 54 54 71 87 92 80 94 62 48 33 63 73 87 96 86 100 90 22 25 40 45 38 33 33 35
89 91 92 90 87 86 92 95 88 89 98 61 57 54 48 43 36 51 57 47 49 51 60 80 88 98 98 75 68 26 56 48 66 60 66 36 25 29 25 31 35 36 38 34
92 95 93 93 92 91 88 93 92 96 71 59 50 56 54 50 53 56 61 55 39 46 46 72 84 99 78 98 77 57 33 32 55 50 26 24 24 22 24 30 39 36 37 39
95 94 92 94 93 89 89 95 91 82 62 99 76 48 56 48 45 46 50 46 53 57 63 94 99 100 51 87 56 61 42 38 38 40 31 30 29 41 45 44 46 46 44 46
95 96 94 92 91 94 96 93 81 70 45 88 82 57 51 45 46 46 47 54 57 65 83 100 94 68 81 82 73 77 35 37 69 71 49 52 52 48 46 50 49 48 48 50
96 94 94 93 94 97 97 92 58 62 48 82 98 64 57 47 45 46 50 51 53 52 71 91 62 53 74 99 86 45 45 44 46 51 49 50 50 48 52 64 62 59 59 58
95 96 95 95 95 93 94 73 82 87 66 84 100 94 65 51 53 61 54 49 52 52 68 89 75 64 65 100 88 53 49 46 47 47 50 58 49 60 58 62 64 66 64 65
96 96 95 94 93 93 88 81 83 83 53 70 98 100 91 61 85 91 69 80 67 72 78 80 90 78 94 92 59 53 51 51 51 48 46 56 59 59 61 59 60 65 69 71
94 92 92 84 79 88 69 92 90 75 71 88 100 100 100 64 84 92 88 72 99 76 98 86 78 94 92 69 62 60 59 59 60 61 60 62 66 65 62 60 62 68 69 60
88 77 63 98 91 94 83 66 73 83 81 77 100 82 99 75 99 100 98 99 99 98 96 76 100 97 77 69 64 62 62 58 67 81 83 74 70 66 60 54 59 65 65 61
73 86 96 81 91 76 74 96 90 81 96 79 85 78 92 81 97 100 98 98 99 99 90 94 98 90 87 74 71 69 67 63 67 68 64 63 60 60 69 66 62 64 71 81
81 80 82 82 87 92 97 100 100 99 98 96 97 93 81 94 72 87 93 97 96 99 79 100 95 92 84 79 75 68 62 61 61 58 60 59 56 56 55 59 69 79 88 95
74 83 97 91 99 100 100 100 100 99 99 99 98 100 100 93 80 100 94 100 100 79 100 83 94 92 85 78 68 62 55 58 57 55 53 54 66 71 77 86 90 87 82 84
91 100 100 100 100 100 100 100 100 100 100 100 100 100 100 100 100 100 100 100 94 100 98 93 99 96 89 76 66 60 59 81 57 55 63 78 84 90 95 98 94 89 76 76
90 93 100 100 100 100 100 100 100 99 98 100 98 99 92 100 100 100 99 100 98 94 96 99 99 97 92 74 64 67 80 92 73 67 88 97 91 81 78 73 72 78 90 89
97 99 100 100 100 100 100 100 100 99 100 100 98 100 100 100 100 100 100 96 95 100 98 98 97 98 93 79 70 70 68 73 74 80 84 86 86 83 71 66 67 91 87 87
100 100 100 100 100 100 100 100 100 100 100 100 100 100 100 91 99 97 100 100 100 97 99 98 97 96 97 82 85 87 78 72 76 78 78 76 69 71 62 60 53 52 58 81

GFSNW_sfc_rhum_033.txt.gz
RH
78 81 87 81 85 90 98 98 97 72 74 99 86 80 65 58 40 38 36 29 30 26 28 30 26 27 39 21 28 31 50 62 80 52 29 23 25 35 46 70 46 64 79 55
85 79 86 86 85 84 92 96 82 78 63 78 88 63 62 55 48 43 36 35 34 33 28 35 30 45 44 41 35 37 44 46 58 42 36 35 32 28 26 40 62 55 73 55
85 78 79 89 83 85 92 97 91 98 90 46 62 62 56 63 45 44 34 30 33 34 30 34 34 52 47 45 45 64 50 40 46 56 42 36 44 32 30 35 75 59 56 42
82 77 80 82 84 83 94 99 71 77 90 88 59 53 49 58 58 42 34 35 34 34 39 40 38 51 50 48 58 47 44 47 43 35 34 31 31 34 33 30 41 52 44 37
78 76 79 85 85 83 98 97 65 78 80 70 73 59 58 54 45 43 37 40 34 33 38 40 40 43 48 49 55 46 44 58 52 57 40 37 42 35 34 32 31 32 32 34
80 81 80 84 86 85 97 80 79 70 79 76 79 57 51 51 43 40 29 36 37 42 40 44 48 41 43 45 54 54 54 62 72 72 49 44 56 40 33 35 33 32 37 34
83 81 83 85 84 85 95 71 77 92 80 77 69 46 44 51 45 49 33 38 42 47 43 47 49 49 48 50 55 49 66 65 83 83 75 57 40 26 21 24 27 26 26 28
82 84 83 86 81 82 92 86 93 97 100 66 58 45 47 48 46 46 40 51 41 47 53 74 72 80 57 55 46 48 60 76 88 78 84 54 36 31 36 35 38 33 36 34
91 85 84 79 77 80 88 78 93 99 97 81 45 43 48 57 61 79 77 67 61 53 78 86 77 87 62 62 50 53 53 70 74 90 84 72 56 31 30 29 61 42 40 44
92 85 80 86 86 89 89 94 90 98 100 70 57 48 49 50 74 87 89 84 74 69 100 99 86 77 50 76 76 79 90 86 85 96 93 78 47 31 36 50 61 46 42 46
84 84 88 88 85 84 85 91 91 99 99 83 71 45 48 54 71 82 77 90 81 89 91 92 91 92 73 70 66 77 80 94 97 97 98 84 38 36 44 63 52 44 45 50
88 90 90 88 87 87 86 94 85 89 99 96 87 74 76 58 57 76 75 70 74 80 88 97 98 99 98 76 81 57 79 81 87 78 84 62 40 38 44 44 52 58 60 62
90 90 89 86 88 88 86 89 90 96 98 94 96 86 69 59 63 66 82 77 62 67 84 97 99 98 92 92 87 71 55 48 68 58 48 45 42 56 57 59 64 60 57 58
91 91 90 88 88 88 87 92 89 99 98 100 94 64 71 56 60 57 64 62 76 81 93 99 100 99 78 93 72 75 64 52 52 56 51 67 64 64 60 60 60 59 58 58
91 91 92 91 90 88 93 93 92 96 99 100 97 71 62 58 66 64 64 71 79 93 90 99 96 92 89 90 85 77 56 57 74 85 70 70 72 66 64 68 67 64 65 68
91 91 92 91 94 95 96 96 94 96 98 99 100 82 74 63 68 66 68 73 74 87 93 99 90 75 87 96 94 65 62 63 67 73 64 67 72 70 68 72 70 68 70 68
96 93 91 93 96 95 94 94 97 97 99 98 100 98 82 73 78 92 84 77 90 90 94 97 89 84 95 100 94 68 61 61 59 59 62 74 72 80 71 72 72 74 75 78
96 96 95 96 97 95 95 95 95 97 92 92 100 100 96 75 95 99 96 97 93 94 96 96 96 95 98 94 76 64 61 59 66 70 67 70 68 68 70 68 72 77 76 79
96 96 96 95 98 98 94 91 89 95 87 99 100 100 100 85 97 98 95 95 100 92 100 98 91 99 98 84 76 74 70 72 75 70 69 70 74 72 70 75 76 76 79 78
94 93 98 100 99 93 87 87 88 92 95 95 100 96 100 86 100 100 100 100 100 99 98 92 100 100 82 81 80 78 78 68 71 85 89 82 80 77 68 72 72 72 74 82
94 98 100 99 96 93 90 98 94 96 99 96 96 96 99 92 99 100 100 100 99 98 97 97 99 99 93 83 83 78 80 71 73 71 70 68 69 74 76 77 84 89 96 97
91 92 97 96 96 97 98 99 99 97 100 99 100 99 95 99 92 99 99 98 96 96 90 98 94 98 87 83 82 77 73 68 68 65 65 67 66 67 75 82 91 96 98 94
85 88 97 95 99 98 97 99 97 99 100 100 100 100 100 96 93 100 98 100 99 95 92 89 99 95 87 82 73 70 65 66 67 70 76 80 83 86 90 95 92 89 87 89
97 100 98 100 99 99 99 99 100 100 100 100 100 100 100 100 100 100 92 100 98 100 99 96 99 96 90 80 74 69 71 76 76 79 85 92 92 95 91 90 90 89 87 89
98 94 99 99 100 99 100 100 100 99 100 100 100 100 96 100 98 100 98 99 91 95 98 100 99 95 88 82 75 79 82 84 84 85 91 93 88 82 84 85 82 83 90 92
98 98 98 99 99 99 99 99 100 99 100 100 100 100 99 99 99 99 99 97 99 100 100 99 97 96 88 78 78 80 81 85 91 93 93 90 86 81 78 84 81 90 85 90
98 99 100 100 99 100 100 100 100 99 100 100 100 97 99 99 99 99 99 99 100 97 100 99 98 98 96 82 86 90 85 90 90 90 85 79 76 79 77 68 70 76 70 88

GFSNW_sfc_rhum_036.txt.gz
RH
78 80 78 82 78 81 93 94 95 84 80 94 88 86 63 62 49 49 53 48 43 33 33 34 31 30 24 33 44 42 51 63 72 45 40 37 32 38 44 67 44 68 80 52
75 78 76 78 84 79 90 93 89 87 74 93 83 71 64 55 49 52 51 48 41 34 34 40 35 42 49 48 39 45 50 60 67 49 36 40 38 31 37 53 64 57 74 56
76 75 75 80 84 79 90 95 94 93 92 71 58 70 71 70 51 53 55 55 50 42 36 37 42 50 50 51 44 64 47 48 52 61 39 40 47 41 40 43 75 60 62 45
77 77 76 78 85 84 91 94 77 72 95 89 65 56 64 70 65 53 49 49 50 55 42 38 57 55 51 51 57 53 44 47 43 39 40 42 40 37 39 37 43 52 41 43
76 76 78 83 83 92 95 91 93 80 88 72 82 64 62 58 48 47 45 53 50 46 38 37 46 52 54 47 54 48 48 51 53 55 47 42 45 37 38 38 38 43 39 42
76 77 83 83 82 94 96 87 84 80 70 77 86 73 59 50 45 46 39 45 46 53 40 40 39 45 48 47 50 57 55 66 72 70 53 47 62 45 36 36 39 36 41 37
79 81 81 89 81 90 92 84 82 94 84 80 77 64 53 49 47 46 46 41 50 46 52 51 47 49 59 58 62 56 68 72 81 81 69 68 46 34 33 39 37 34 35 37
79 81 83 81 81 84 98 86 95 99 92 68 74 66 55 46 46 56 41 44 43 49 61 73 70 83 68 57 53 59 63 80 88 76 78 58 40 31 32 39 46 42 40 40
79 80 81 80 80 86 95 93 98 99 99 81 57 72 55 56 66 60 61 69 71 66 87 87 75 79 65 65 52 56 67 78 80 94 75 70 52 37 32 38 64 44 48 50
82 82 82 80 83 85 91 94 95 98 100 90 60 66 65 54 66 82 87 73 76 77 98 92 86 84 58 74 71 71 88 89 83 97 84 69 49 37 38 43 49 48 50 51
86 85 83 81 82 83 91 91 97 96 98 94 94 61 58 50 58 85 84 85 85 95 91 91 92 86 75 80 68 71 69 89 93 96 93 69 50 38 44 53 60 54 58 60
82 85 84 84 83 85 83 97 95 94 98 94 88 84 79 75 46 83 89 66 76 85 89 97 97 93 95 82 90 69 71 67 79 76 77 58 48 51 55 56 64 71 77 75
91 90 88 86 84 83 83 98 96 93 95 93 96 88 76 72 58 65 82 88 71 81 80 96 97 81 90 88 86 75 62 67 76 69 69 75 76 68 69 70 69 66 66 66
90 88 90 88 84 87 84 97 97 90 96 100 93 80 78 69 73 63 64 69 79 84 88 99 100 91 78 90 69 71 66 58 61 82 83 72 72 71 68 68 66 67 65 67
92 91 90 90 90 90 94 97 96 96 99 100 97 80 76 77 84 74 72 71 82 90 87 98 91 92 90 92 84 80 61 60 72 78 68 77 82 77 71 72 72 70 73 78
92 92 91 91 91 90 95 96 94 91 94 100 100 94 90 83 83 94 78 89 92 92 85 99 92 84 83 89 92 72 72 73 70 81 74 78 78 74 71 77 76 75 78 78
92 93 93 92 92 95 92 92 95 87 95 99 99 98 96 88 90 97 97 96 98 96 97 98 90 91 91 98 92 75 73 72 73 72 73 84 78 87 78 80 80 80 81 82
93 92 93 93 93 89 94 96 99 97 95 97 100 99 100 84 98 99 98 98 98 98 98 98 96 98 97 94 82 75 76 76 76 78 74 77 75 75 79 76 76 82 89 91
95 92 93 97 99 97 91 97 99 99 98 100 100 100 100 90 99 99 97 97 100 96 100 100 93 99 99 90 83 78 77 80 82 77 76 76 80 81 81 78 79 88 89 86
96 96 98 100 100 98 92 96 100 99 98 94 100 98 100 93 99 99 100 100 100 98 98 95 99 100 90 94 92 82 79 75 76 90 94 87 88 86 81 81 82 83 87 94
97 99 100 100 98 98 99 100 98 97 99 98 98 98 99 96 99 100 100 100 99 98 97 96 100 99 93 91 92 91 81 75 78 72 76 73 75 79 83 85 88 93 93 92
97 97 98 98 96 97 96 99 97 97 100 98 100 100 97 99 92 99 98 97 96 98 93 99 98 99 94 93 91 86 79 72 71 70 73 73 72 76 81 89 97 93 92 92
89 94 97 90 97 97 95 99 98 99 100 100 100 100 100 96 94 100 96 96 97 95 95 93 99 97 91 86 80 75 72 76 77 78 78 82 86 87 90 91 89 91 88 84
96 95 98 99 99 99 100 100 99 100 100 100 100 100 100 100 100 100 94 100 97 99 100 96 99 96 93 81 78 76 80 86 85 84 87 92 94 94 91 87 87 87 83 73
98 96 99 99 100 99 100 100 100 99 99 100 100 100 97 100 99 99 98 98 93 98 98 100 99 96 88 84 79 82 86 89 89 86 90 92 86 83 85 83 81 86 89 88
95 98 99 99 99 98 99 99 100 99 100 100 99 99 97 99 98 98 98 90 99 99 99 100 97 89 85 81 82 83 84 86 88 88 85 84 85 82 78 76 78 90 89 90
97 99 100 100 100 100 100 100 100 99 100 100 99 97 100 99 98 98 99 99 99 99 100 99 96 91 94 97 96 96 98 97 98 97 85 81 76 83 80 74 70 70 78 90

GFSNW_sfc_rhum_039.txt.gz
RH
72 80 77 76 79 80 88 92 94 93 83 97 89 82 68 60 48 51 58 61 59 46 38 38 35 33 26 27 44 38 48 53 59 45 43 38 38 41 44 68 49 72 82 56
77 81 77 74 77 80 92 92 89 91 80 92 87 71 61 57 52 54 58 60 57 50 42 39 40 38 43 50 40 49 53 60 64 48 42 44 44 40 47 56 65 66 76 56
84 87 76 76 82 84 91 95 96 99 94 68 68 74 73 73 56 54 56 64 62 58 48 41 45 51 50 54 45 62 52 58 50 55 44 42 50 44 43 49 78 59 64 46
88 82 80 78 75 86 95 95 73 78 96 86 77 64 65 71 67 58 50 59 65 66 66 45 58 60 57 54 60 58 45 48 49 46 38 42 40 40 44 44 46 54 45 51
82 80 79 77 73 83 99 90 90 90 88 70 78 73 65 64 63 60 61 51 53 46 58 48 52 54 56 50 53 53 51 54 49 58 49 44 47 40 42 43 44 44 45 43
83 78 78 75 76 80 98 77 82 78 75 74 77 72 63 61 56 56 51 50 56 62 56 50 40 49 49 44 50 56 54 66 69 58 59 53 64 50 43 40 41 40 45 38
79 77 75 75 77 79 96 78 85 96 83 83 72 64 60 57 56 57 50 46 52 54 54 52 54 56 59 62 64 56 66 70 79 80 70 73 45 43 38 44 44 38 40 39
80 77 76 76 78 77 95 89 96 97 98 71 71 68 68 57 51 55 48 46 33 59 66 69 72 82 69 61 67 71 64 80 85 76 78 59 46 39 40 39 45 44 46 51
76 75 77 79 81 75 91 95 97 98 100 85 63 74 63 69 64 64 56 59 59 73 84 87 78 84 72 72 61 63 66 76 80 89 76 76 56 44 36 40 61 44 49 51
77 77 78 79 79 78 91 95 91 97 98 84 70 74 72 57 64 67 73 59 80 76 95 94 83 80 63 75 72 71 90 90 87 97 84 71 49 41 36 45 50 53 53 54
77 80 81 82 80 79 96 94 92 97 97 91 88 89 73 69 59 68 82 80 90 94 88 93 90 89 78 77 67 68 74 89 91 93 82 68 51 45 40 49 64 58 58 62
81 81 82 82 83 83 86 96 89 95 96 93 84 83 82 85 58 54 90 71 82 82 88 97 98 94 95 83 88 72 63 70 80 72 72 57 64 47 59 61 60 67 68 75
82 82 83 83 81 82 86 94 95 95 98 93 91 95 79 80 80 76 76 88 77 84 87 96 97 86 90 88 89 81 68 68 73 69 74 80 80 79 76 74 76 75 77 74
86 85 84 82 82 84 86 94 96 91 95 100 90 79 89 83 82 82 69 67 91 93 96 99 99 90 78 90 71 77 71 68 79 91 88 79 78 78 74 73 73 75 74 73
85 84 85 84 83 82 86 98 97 94 94 100 97 90 75 91 94 83 66 79 87 94 94 97 91 92 89 93 85 79 68 70 80 84 77 72 82 80 74 74 78 77 79 83
92 90 84 84 84 91 92 95 89 95 96 98 100 92 87 93 95 84 74 80 95 93 90 100 95 87 84 94 92 67 74 74 62 62 68 82 82 79 75 79 80 77 78 78
92 93 92 93 90 92 91 91 93 86 92 96 99 96 86 94 97 99 97 96 99 96 97 97 92 95 84 95 90 73 82 82 80 76 77 88 84 92 82 83 83 81 83 84
92 91 90 89 86 85 92 97 86 84 92 93 100 98 98 92 99 100 99 99 98 98 99 98 96 98 97 89 86 89 82 79 80 83 79 80 84 83 85 82 83 90 94 94
92 92 93 95 95 97 94 99 97 99 94 99 100 99 99 96 99 100 98 98 100 98 100 100 95 100 98 87 88 88 84 83 88 81 81 82 87 86 83 84 86 90 94 92
94 91 97 100 94 91 87 93 96 100 100 99 100 98 100 95 100 100 99 100 100 100 99 96 99 99 93 96 90 87 84 81 80 94 97 92 90 88 85 86 80 82 90 94
96 99 100 99 93 93 96 99 100 99 100 98 98 98 99 98 100 100 99 100 99 99 98 97 100 99 95 94 95 88 83 80 90 82 83 81 79 82 88 88 89 89 88 90
91 96 97 96 95 98 98 100 100 100 99 98 100 100 98 99 97 99 99 98 96 99 93 99 100 98 97 96 94 90 84 80 80 76 78 78 78 80 84 87 90 90 90 93
98 94 96 96 100 99 99 99 99 99 99 100 100 100 100 96 95 99 96 98 98 96 97 97 98 99 96 92 84 82 76 78 78 78 79 80 83 85 90 94 89 90 87 85
97 100 98 99 99 99 99 100 99 100 100 100 100 100 100 100 99 100 95 100 96 98 97 93 99 99 95 86 84 84 87 90 89 90 89 88 86 88 90 92 86 81 74 79
99 95 98 99 100 99 99 100 100 99 99 100 100 100 97 100 99 99 98 96 98 99 99 99 100 96 89 87 88 90 93 92 90 88 92 93 86 82 84 82 74 74 87 88
96 98 98 99 98 98 98 99 100 99 100 100 98 99 97 99 99 98 99 93 99 99 99 100 96 94 90 90 88 90 91 91 93 93 91 86 88 83 81 83 79 88 86 88
93 99 99 100 99 99 99 99 99 98 100 99 99 98 99 98 97 97 98 98 99 99 99 99 93 96 98 98 98 98 97 90 87 86 90 88 76 76 74 79 77 69 76 91

GFSNW_sfc_rhum_045.txt.gz
RH
84 85 83 79 77 82 92 93 97 80 83 98 84 79 63 61 50 50 55 59 63 62 45 45 43 38 31 29 36 36 41 48 50 36 37 34 35 40 42 57 47 56 58 42
85 87 85 80 78 81 96 97 84 88 87 90 88 67 62 55 56 55 59 61 60 57 56 45 43 42 36 42 37 44 48 47 46 35 35 37 39 38 42 50 58 55 75 42
87 89 87 82 78 79 94 97 96 96 93 67 63 74 70 65 57 59 56 60 61 57 56 52 44 45 45 49 38 64 46 50 45 39 37 38 48 43 43 45 60 52 50 38
83 91 88 83 80 81 94 98 87 77 96 84 73 63 61 68 69 55 59 64 58 62 60 58 51 50 56 55 68 51 46 47 49 38 32 37 37 39 45 40 43 51 40 40
81 89 88 84 80 84 97 97 90 86 74 68 76 71 68 64 60 54 60 62 63 56 66 55 58 51 54 53 56 55 49 50 53 47 43 39 43 38 42 42 40 40 37 38
82 90 88 85 81 87 98 93 85 69 76 74 73 66 66 62 61 57 47 54 60 72 59 53 53 52 50 50 55 58 56 63 60 53 49 44 64 50 42 41 41 39 46 36
82 90 88 86 82 80 93 90 83 89 84 79 68 61 60 61 58 61 52 52 54 53 53 53 56 54 59 63 62 55 62 63 66 73 67 73 40 38 36 41 40 37 37 32
82 91 88 85 83 78 96 97 95 93 90 72 68 66 62 62 58 61 52 58 54 55 54 66 72 80 73 71 67 64 57 68 76 79 62 49 37 38 41 42 30 34 35 35
84 89 86 84 81 78 87 99 97 98 89 81 61 68 62 69 67 71 66 60 58 66 79 76 73 85 72 68 64 60 65 64 69 74 72 70 51 36 35 30 45 34 37 47
91 88 86 83 81 78 79 98 94 96 98 87 73 71 68 58 67 78 76 66 71 63 90 96 87 76 66 75 76 82 78 78 73 78 82 62 46 37 37 49 45 42 42 49
90 87 85 81 79 77 74 98 94 96 98 91 88 88 76 65 59 72 77 74 78 95 88 92 88 92 78 75 65 75 72 79 85 78 90 68 45 38 45 47 45 48 51 54
90 87 83 80 81 78 81 95 94 94 98 96 91 88 83 76 49 61 68 66 70 71 88 93 92 98 96 77 71 62 76 66 70 60 63 54 47 44 42 44 44 52 53 55
91 90 86 85 86 86 82 97 96 96 99 90 88 90 84 84 82 63 78 84 74 80 82 91 90 92 84 93 83 76 66 63 70 65 55 53 55 54 58 51 50 50 50 55
89 89 89 89 86 78 85 96 94 90 94 97 85 79 77 81 85 78 72 70 88 88 88 93 97 96 77 87 68 75 67 67 70 65 59 70 62 64 58 63 68 65 61 60
89 89 86 86 83 80 92 97 92 88 90 99 95 80 81 77 91 91 83 82 88 93 96 100 93 86 86 92 85 85 65 64 73 68 52 56 46 54 68 71 69 65 67 71
90 87 85 81 80 84 93 95 91 92 88 98 99 87 82 87 95 98 96 91 90 91 90 96 87 83 87 96 86 58 60 69 70 53 66 74 78 72 67 71 72 71 69 70
84 84 83 83 83 90 93 94 92 88 95 99 99 95 84 83 92 96 99 92 94 90 91 97 90 91 83 97 84 56 72 72 75 73 70 72 72 72 74 74 77 77 75 74
83 83 83 82 82 83 93 95 88 88 94 96 100 97 98 92 100 100 98 99 95 95 94 96 97 94 93 91 69 77 77 76 78 78 75 74 78 77 80 78 77 82 85 84
83 83 85 90 93 96 92 92 91 96 95 100 100 100 99 94 100 99 99 98 100 97 100 98 93 100 94 80 78 84 82 79 86 84 79 77 80 83 83 81 82 89 89 85
86 88 90 99 93 88 92 99 99 99 96 99 100 96 98 92 100 100 99 100 100 100 99 98 100 99 89 87 85 82 82 80 80 94 96 94 92 88 87 86 83 85 85 85
91 98 100 95 91 94 95 97 99 99 100 99 97 96 99 95 97 100 100 100 100 100 99 98 100 98 93 92 90 84 81 77 81 78 82 81 84 87 90 92 91 92 91 92
95 93 96 95 94 97 97 99 99 100 98 100 100 99 95 100 94 97 100 100 100 100 98 100 100 99 97 96 96 92 90 90 91 86 89 88 85 84 88 92 94 94 95 97
95 93 95 91 99 99 98 98 99 100 100 100 100 100 100 98 95 100 100 100 100 99 99 97 99 99 97 96 90 92 88 88 88 90 88 87 90 90 92 97 97 97 95 95
99 98 98 98 97 98 98 99 100 100 100 100 100 100 100 100 99 100 100 100 100 97 96 98 98 100 100 96 93 92 96 96 95 96 95 97 97 97 98 97 97 96 92 88
99 92 97 98 100 99 100 100 100 99 100 100 100 100 99 100 100 100 98 95 96 94 96 98 98 100 100 100 99 98 98 98 97 97 96 97 96 95 94 91 81 80 90 91
92 92 96 97 97 97 98 98 98 99 99 100 97 99 98 99 96 89 95 92 94 95 97 96 98 99 99 98 98 98 97 97 96 96 95 94 94 90 80 79 81 91 90 92
95 97 97 98 98 98 98 98 97 98 100 99 90 92 96 89 91 91 91 95 94 96 95 98 100 99 98 98 98 98 96 95 94 92 91 89 70 70 70 77 77 74 81 92

GFSNW_sfc_rhum_048.txt.gz
RH
83 84 84 85 84 81 87 88 99 64 70 96 91 94 52 38 29 36 43 43 43 44 33 31 28 24 20 19 19 28 22 26 31 26 25 24 20 23 27 38 33 35 39 29
83 84 85 85 85 85 90 95 96 80 71 88 95 54 55 38 33 35 43 45 43 45 44 36 29 27 24 23 23 25 27 30 35 30 28 27 25 24 23 28 36 34 59 30
84 84 85 86 87 86 86 98 99 97 92 46 57 64 60 48 36 30 39 39 43 46 47 42 40 31 35 31 22 55 36 25 28 33 23 19 29 25 22 26 40 32 34 24
85 84 84 86 89 86 92 98 88 79 94 79 50 49 48 51 44 35 34 43 44 46 50 43 45 35 44 38 56 30 30 29 27 20 17 16 18 17 22 25 26 31 27 23
77 81 84 86 91 86 95 99 72 63 51 61 55 57 53 44 37 33 43 42 42 42 44 39 55 43 42 37 45 33 31 30 28 31 22 21 22 18 17 21 19 22 23 22
79 81 83 84 90 88 97 90 52 48 57 59 64 60 48 45 39 35 28 38 40 47 41 39 45 44 44 39 39 45 41 36 38 36 30 30 54 34 23 22 25 26 28 22
80 80 80 84 90 86 91 64 55 77 61 64 61 51 44 45 42 44 34 34 48 37 42 40 50 39 45 43 43 37 46 44 44 48 69 83 24 24 21 23 22 20 21 19
81 79 81 81 89 85 87 74 72 70 88 50 51 54 47 39 42 46 37 42 38 43 40 44 43 60 54 51 43 48 42 45 57 79 50 30 30 30 29 31 24 18 20 18
86 82 80 81 90 86 80 81 71 73 73 54 37 54 53 51 54 50 44 39 52 51 58 58 61 44 35 43 56 50 47 50 57 62 58 81 29 21 22 23 36 17 18 22
88 82 80 89 88 84 75 85 79 76 69 44 43 59 66 48 49 50 48 57 65 52 72 93 69 54 35 53 64 86 69 67 76 62 71 41 27 25 24 39 36 21 20 23
84 81 85 87 88 84 75 89 78 79 76 78 62 50 54 48 55 58 46 61 68 73 78 74 68 80 51 46 39 59 60 68 83 61 88 76 30 28 31 27 34 26 30 28
82 86 88 88 88 78 77 98 78 72 73 97 81 74 68 71 36 40 52 40 47 49 60 69 58 96 91 47 60 41 56 47 50 46 45 33 33 26 25 28 25 32 30 30
85 90 87 87 88 78 81 97 82 77 79 65 86 87 61 67 67 46 52 42 38 49 41 60 68 89 65 94 59 45 45 48 58 54 30 33 35 27 30 28 28 27 28 32
90 89 88 90 87 86 80 81 68 58 73 86 65 76 69 60 65 58 52 40 54 51 58 68 88 90 49 64 44 56 38 50 46 45 36 44 39 35 29 34 39 38 31 36
90 89 92 93 91 82 78 73 62 52 52 91 84 65 75 78 78 64 54 58 54 69 79 90 76 54 66 73 69 61 42 45 58 53 34 44 29 29 34 39 42 39 38 42
92 91 90 88 82 74 78 97 79 63 58 80 99 69 60 67 88 73 57 59 57 62 64 77 57 58 62 92 66 37 37 38 38 38 48 51 54 48 40 41 42 42 42 41
92 90 86 80 75 62 64 65 66 71 63 79 98 89 72 65 74 81 78 67 71 63 69 72 65 72 67 95 79 41 38 38 45 56 58 52 54 51 58 53 52 57 45 46
89 83 81 78 74 70 74 88 83 77 68 75 99 93 90 64 78 98 94 97 88 76 72 74 69 69 82 80 46 41 47 54 60 58 59 59 58 58 61 62 57 59 58 58
83 84 81 74 73 79 93 91 82 77 73 98 100 100 97 81 90 95 99 93 100 84 94 79 68 76 86 57 52 51 57 61 57 64 60 60 62 61 67 65 64 64 70 68
82 79 93 97 81 90 90 93 94 87 94 95 100 94 97 93 100 98 95 100 100 100 96 84 98 75 71 73 70 67 65 62 63 71 74 72 71 68 70 70 68 72 72 73
74 89 94 76 87 89 92 98 100 99 100 98 84 78 83 94 99 100 94 99 100 100 99 96 100 97 96 88 79 71 75 68 62 59 60 61 63 70 75 82 81 81 85 91
81 88 73 75 70 80 95 100 99 100 96 98 98 96 87 98 91 97 99 100 100 100 99 100 98 99 99 96 94 87 77 72 72 67 67 70 69 72 79 86 91 93 94 97
95 92 96 94 98 100 100 98 99 99 100 99 100 100 98 97 93 100 100 100 100 99 100 96 96 96 98 99 98 97 94 92 89 86 85 88 92 90 93 96 96 96 96 97
99 99 99 100 97 95 95 95 100 100 100 100 100 100 100 100 100 100 100 100 100 100 96 96 92 97 99 99 100 100 99 100 98 98 97 97 96 97 97 97 97 96 95 96
93 83 95 92 97 94 96 97 100 100 100 100 99 100 99 100 100 98 99 100 93 86 90 93 94 97 100 99 98 97 97 98 97 97 96 98 98 95 95 95 94 93 96 95
75 82 91 88 90 92 92 94 97 99 99 100 99 97 100 96 88 84 92 79 87 90 90 90 96 99 97 98 98 98 98 97 96 95 94 94 94 94 91 91 90 96 94 94
93 95 95 97 96 96 97 98 96 96 100 98 76 87 95 73 77 82 80 90 90 91 90 91 97 97 97 97 98 99 97 93 93 92 91 89 77 70 68 77 78 80 85 90

GFSNW_sfc_rhum_054.txt.gz
RH
85 86 86 86 86 86 92 96 99 66 67 98 96 77 60 46 29 24 24 25 23 22 21 30 26 24 21 16 18 22 21 30 33 22 16 16 18 24 28 46 40 40 61 44
89 88 86 88 86 87 97 98 97 74 70 97 96 70 47 41 38 27 23 26 23 25 31 47 32 36 19 22 21 24 23 30 40 29 25 21 22 22 23 28 32 43 82 45
80 80 90 92 89 89 97 99 99 94 94 62 70 67 59 49 37 34 24 24 24 29 44 42 47 36 23 27 20 50 34 30 32 41 40 27 29 22 26 31 53 46 47 35
80 80 82 87 92 91 97 99 98 78 96 92 64 58 44 49 46 33 28 27 26 28 45 58 59 46 36 27 44 29 34 37 33 24 20 22 23 22 22 24 24 51 44 26
81 80 79 84 91 92 99 100 97 62 53 68 67 64 56 43 35 32 32 32 25 26 36 51 59 75 38 44 29 31 31 40 34 36 22 22 23 19 18 18 18 18 19 22
80 80 80 79 80 88 98 99 81 64 63 71 72 67 58 46 38 33 23 24 29 31 34 41 60 84 71 51 35 39 41 40 40 48 29 27 38 25 19 17 17 17 23 20
82 82 83 81 79 81 95 96 82 97 83 78 62 51 47 46 38 42 26 24 30 25 29 66 69 68 74 79 42 38 39 43 43 61 66 60 27 18 17 20 18 14 13 13
84 84 83 83 81 79 94 95 82 82 100 51 57 51 46 43 41 40 33 24 20 23 44 59 90 96 91 76 42 44 40 54 71 70 59 38 26 23 22 25 23 16 16 14
87 86 85 84 82 80 92 95 68 81 88 74 40 49 45 51 51 50 40 29 25 30 34 59 80 95 70 65 44 38 42 52 74 78 67 71 48 24 17 20 38 19 17 20
84 85 85 85 83 81 90 95 72 84 97 63 48 52 56 44 46 50 41 38 44 43 53 67 71 59 31 49 59 71 75 80 91 78 78 52 26 22 21 42 44 26 20 21
86 85 85 85 83 80 90 93 73 80 93 70 56 70 67 53 49 60 43 55 64 90 76 69 62 71 45 36 26 60 69 85 92 77 85 81 29 26 33 35 35 30 26 28
87 87 90 84 82 81 89 94 74 78 92 88 72 71 79 69 49 56 47 52 52 65 92 58 59 87 78 46 59 33 68 54 74 55 55 49 42 36 33 35 36 34 32 26
85 85 91 92 87 90 91 94 86 88 96 94 81 71 72 74 59 46 58 49 54 75 60 50 54 70 42 85 66 46 44 37 54 55 37 37 44 42 37 30 35 27 26 25
88 86 87 91 89 88 87 85 68 82 89 98 80 63 58 50 52 48 54 62 47 55 53 64 74 82 39 67 52 48 39 34 45 42 38 37 35 30 44 37 36 31 28 30
91 90 90 91 94 88 87 83 76 83 82 86 92 52 40 46 51 52 59 66 65 88 84 90 74 50 55 58 54 52 26 30 44 58 40 49 42 43 37 31 30 33 35 35
85 90 91 91 91 84 89 98 96 88 85 80 84 58 47 44 52 59 56 68 77 77 87 82 52 39 50 87 59 33 26 24 22 34 30 35 47 43 39 42 44 36 37 36
88 87 87 87 78 74 81 83 75 70 64 64 76 72 50 40 48 61 61 59 87 87 77 73 56 49 46 84 70 32 29 29 35 41 49 50 50 50 50 50 43 44 36 37
89 90 85 83 85 82 82 66 72 66 56 49 71 87 77 51 73 81 61 74 73 84 88 73 70 55 72 75 48 53 54 52 38 45 42 50 48 47 43 45 46 50 44 44
82 85 84 85 92 94 79 78 64 71 71 74 96 94 98 69 86 76 79 76 99 80 90 74 66 73 88 93 92 86 79 71 64 56 54 51 52 52 48 51 53 56 59 60
76 64 70 96 89 84 68 68 69 69 75 71 93 70 88 94 96 96 90 88 100 83 76 60 89 98 96 90 86 93 85 78 65 67 69 66 65 60 58 54 55 57 60 69
67 78 98 84 86 83 90 92 89 79 93 76 72 72 85 97 100 100 94 98 98 100 83 90 83 95 94 96 94 92 88 80 76 67 68 66 63 61 64 73 81 87 88 91
76 69 66 75 89 99 100 99 100 82 77 86 89 86 77 98 96 100 99 100 100 100 99 100 96 94 92 94 94 89 90 87 86 84 84 85 84 86 92 95 96 95 92 92
69 65 92 98 92 97 98 93 86 88 100 100 100 99 100 96 93 100 100 100 100 99 99 95 94 90 94 98 94 85 85 87 88 90 89 89 92 91 92 96 95 94 95 96
89 99 93 98 91 92 96 95 97 100 100 100 100 100 100 100 100 100 100 100 100 98 95 94 92 98 98 97 98 91 97 98 97 97 97 97 97 97 97 97 97 95 96 97
82 73 91 91 97 93 94 92 98 99 99 100 100 100 98 100 100 99 98 96 89 89 93 94 96 97 96 96 96 96 96 97 97 96 96 96 96 95 96 96 96 94 95 95
68 77 88 86 86 90 90 90 92 89 95 99 99 99 94 92 88 88 95 86 90 92 92 93 94 96 96 96 96 97 97 96 96 95 95 94 94 94 95 94 94 96 96 96
78 93 90 91 85 94 95 95 92 93 98 99 86 84 95 79 83 91 88 93 94 93 92 93 95 95 96 96 96 96 95 94 94 94 93 94 94 90 85 91 94 92 93 96

GFSNW_sfc_rhum_057.txt.gz
RH
84 86 86 87 89 89 95 97 100 73 69 99 92 86 68 56 41 40 42 38 34 37 36 36 35 51 45 24 26 29 26 36 40 32 23 20 23 30 34 69 60 61 72 61
83 84 85 87 88 89 98 98 98 81 72 98 92 73 72 62 56 45 44 42 34 32 36 43 62 52 45 42 42 29 31 32 50 41 29 23 25 26 27 34 56 58 82 67
84 85 86 85 87 88 97 99 100 99 95 72 73 75 76 77 54 54 47 42 36 35 41 34 60 60 50 60 59 48 34 35 34 47 44 32 39 27 25 35 64 53 68 52
85 86 87 87 88 90 98 100 98 91 97 96 81 65 60 68 70 47 41 46 49 44 46 42 47 56 70 62 58 42 37 37 31 32 30 28 31 32 28 30 35 52 48 43
91 87 86 82 82 85 99 100 98 83 68 74 84 77 72 66 50 52 49 49 44 43 45 38 49 68 73 81 79 71 41 52 40 38 30 32 36 34 31 26 32 34 36 38
85 85 83 83 84 87 98 99 93 73 77 78 88 82 74 67 58 50 40 43 46 48 41 41 81 83 86 86 86 90 68 58 61 53 36 35 53 37 31 32 26 27 33 29
83 83 82 82 82 85 94 98 93 95 96 82 80 68 67 66 59 62 45 40 43 36 61 78 80 77 69 70 72 87 97 74 68 80 66 67 40 28 26 27 25 22 22 21
80 80 80 82 81 81 95 99 98 91 98 79 68 68 65 60 57 59 52 41 34 32 31 54 84 94 82 74 69 78 84 84 89 72 66 50 37 29 34 32 33 22 23 22
85 84 82 82 81 81 92 96 95 98 98 96 57 64 61 66 65 63 54 42 44 46 42 67 68 86 80 86 71 75 86 85 89 96 84 70 56 38 31 30 46 28 30 28
88 88 87 85 83 82 89 93 85 95 100 79 64 66 64 53 57 61 54 53 62 51 70 82 80 89 62 80 81 81 97 99 99 100 99 77 42 32 34 50 54 32 30 31
87 86 87 89 87 85 90 92 85 92 98 90 66 68 88 60 60 67 63 67 68 82 77 78 84 86 63 60 51 73 82 92 98 96 100 92 52 41 40 44 36 36 33 32
88 86 87 88 90 84 89 98 88 85 95 98 93 89 78 83 76 78 66 59 60 78 84 86 79 84 82 62 65 47 84 70 85 76 84 64 57 65 61 61 62 42 43 43
88 87 86 86 87 86 90 95 94 93 95 98 96 89 80 76 74 74 94 84 60 83 86 93 86 77 72 78 58 48 53 53 67 68 58 45 43 54 54 61 61 59 40 52
88 88 88 86 85 87 89 96 91 87 96 99 94 69 88 73 70 72 82 78 66 75 88 92 97 97 64 63 62 63 58 51 55 61 55 54 42 44 52 52 59 50 51 38
90 89 86 87 86 86 90 93 88 86 84 97 93 76 66 70 74 76 77 84 84 92 98 99 92 76 72 78 72 65 46 44 72 83 61 59 52 53 53 58 48 52 47 50
87 92 89 85 91 90 94 99 96 90 93 95 96 79 66 70 77 78 75 84 86 92 95 98 91 69 68 92 82 49 40 36 35 37 42 43 48 52 54 51 56 51 54 54
91 91 92 90 88 93 95 94 94 89 93 93 91 87 66 59 70 82 83 82 93 91 91 99 97 90 83 93 86 92 82 73 64 65 60 63 65 66 58 57 56 58 52 53
87 92 91 87 86 83 90 86 82 88 80 73 96 96 88 68 87 94 83 93 92 92 93 95 95 91 91 97 86 88 84 80 76 72 67 66 63 58 58 58 60 63 66 69
83 83 81 88 94 98 90 76 76 85 88 96 98 97 94 93 94 90 89 92 97 92 98 95 94 93 98 95 94 93 93 93 86 74 72 70 73 68 62 62 66 75 86 81
80 86 91 99 96 81 73 83 90 90 92 88 97 91 100 95 99 99 98 99 98 99 97 93 99 98 98 92 89 89 89 87 81 86 90 86 83 80 92 89 86 84 85 86
87 95 99 93 86 93 94 97 96 94 98 93 91 92 94 96 99 100 98 98 99 99 94 94 99 96 94 96 93 85 86 84 83 80 82 83 87 91 92 94 94 92 92 94
86 84 84 87 95 99 92 96 98 93 93 98 99 99 91 100 97 100 99 91 97 92 98 96 97 96 93 96 92 90 90 88 88 87 92 92 92 92 94 94 95 95 93 92
84 89 99 98 99 97 95 98 98 99 99 99 100 100 99 99 99 100 99 96 95 99 96 97 97 95 94 92 91 92 92 94 95 95 93 90 91 90 90 94 95 93 94 96
95 94 94 94 94 98 98 98 98 100 99 99 99 99 98 100 100 100 99 100 97 96 96 96 97 98 97 96 97 95 97 97 96 96 95 96 95 96 96 96 96 95 95 96
91 86 97 97 98 96 97 98 99 99 98 98 100 100 99 99 99 99 98 97 96 94 96 97 97 97 97 97 97 97 96 96 96 96 95 96 95 94 95 96 95 94 95 95
82 89 95 92 95 93 95 96 97 94 97 99 100 99 93 97 93 89 97 90 96 97 97 97 96 96 97 97 97 97 96 96 96 96 95 94 94 94 95 94 94 95 93 94
88 98 95 96 97 98 98 98 97 98 99 99 96 95 98 87 90 94 94 97 97 97 96 96 96 96 97 96 96 96 96 96 95 95 93 94 93 83 80 90 94 90 92 94

GFSNW_sfc_rhum_060.txt.gz
RH
83 86 88 89 89 87 95 99 100 82 78 99 92 91 69 62 52 48 51 48 49 48 42 45 43 45 38 43 58 50 35 43 46 34 26 26 23 32 37 61 62 69 76 62
82 83 85 86 89 88 97 99 98 83 74 97 94 70 65 62 61 55 52 55 50 42 48 50 49 52 44 60 58 69 64 48 54 48 31 26 29 32 29 42 59 56 77 64
83 85 84 89 90 91 98 99 100 100 95 78 76 75 70 69 55 62 57 58 54 53 55 46 51 54 48 65 64 83 76 64 54 49 44 37 40 34 28 35 70 55 63 49
84 85 85 88 90 90 98 100 98 92 98 97 84 73 64 66 69 58 56 64 60 62 69 58 50 51 73 60 78 70 78 90 51 40 30 29 35 33 33 33 41 51 44 46
88 86 88 88 88 89 99 100 99 92 87 76 90 78 75 71 62 59 66 61 48 47 60 56 55 50 49 72 71 79 78 93 70 52 36 30 32 33 32 31 36 40 39 49
88 87 87 88 88 92 98 96 94 78 82 88 97 87 75 67 63 58 53 54 56 57 51 47 51 79 83 88 78 80 84 96 96 87 42 38 57 39 33 37 39 40 50 40
87 87 87 88 92 93 96 99 96 98 97 85 90 69 68 68 64 69 51 48 59 48 43 77 82 80 80 86 85 73 87 92 98 97 71 76 41 36 33 36 33 31 32 28
84 85 87 89 89 89 96 97 98 98 98 87 71 68 65 67 61 65 63 56 47 46 50 73 68 85 75 81 78 89 80 90 100 99 90 57 50 44 40 40 34 29 27 24
82 82 82 84 82 86 96 95 94 98 99 95 64 67 65 73 78 74 65 52 52 57 66 74 70 74 76 80 93 81 86 86 92 98 97 96 56 39 36 34 54 32 28 29
86 85 83 82 82 80 90 97 91 97 100 92 77 73 74 61 70 77 70 67 67 58 85 91 85 74 56 70 82 95 96 100 97 97 97 88 58 57 36 53 51 36 33 33
88 88 86 85 82 82 90 90 93 95 99 93 87 70 75 65 64 75 70 71 78 86 86 88 85 94 80 83 66 76 82 93 98 100 98 96 64 62 64 66 65 62 61 53
89 90 90 89 89 84 84 94 91 88 97 95 85 76 78 65 66 67 73 67 70 76 88 89 83 89 92 76 77 51 82 70 83 74 78 57 67 64 68 68 65 68 70 61
89 88 88 88 88 88 87 95 94 95 98 95 94 93 88 83 85 89 81 84 63 80 85 93 89 75 78 75 77 57 52 58 73 80 57 56 50 57 59 61 58 56 58 60
90 88 88 87 88 87 88 96 94 87 94 99 91 77 88 76 84 82 88 84 79 82 95 93 96 91 75 81 66 60 43 60 60 65 56 52 50 48 50 42 51 54 51 56
91 89 88 88 88 86 94 95 91 80 83 96 97 85 75 69 80 80 83 85 84 94 95 99 95 90 82 87 86 77 63 72 79 66 57 58 54 38 44 47 44 47 50 54
87 89 88 88 87 93 96 99 95 83 96 93 99 86 88 82 76 80 86 88 90 96 95 98 96 86 77 90 85 88 85 84 83 83 77 62 66 64 58 60 59 57 58 55
89 96 86 86 90 93 97 97 94 86 97 96 100 89 84 83 85 89 90 90 89 92 97 98 95 93 92 97 88 86 85 85 84 80 78 78 72 71 64 62 60 62 62 68
87 87 87 87 82 86 94 95 78 84 93 79 96 96 92 79 92 95 91 96 93 94 92 97 96 92 95 99 84 83 84 82 86 85 78 81 73 67 66 66 69 77 78 76
88 91 85 93 97 98 99 90 85 93 87 96 97 96 96 92 96 93 95 95 98 92 99 94 90 99 97 95 96 93 89 94 91 82 85 81 86 88 84 81 81 86 88 83
88 88 93 99 99 92 82 88 96 94 96 94 97 95 98 95 99 100 96 99 99 99 94 96 95 97 93 90 89 90 87 87 84 92 94 93 94 93 94 91 87 88 88 88
92 97 99 95 85 89 92 98 98 98 96 95 94 91 98 97 98 100 99 100 99 99 94 95 98 95 94 94 90 85 84 84 87 85 88 89 90 93 95 95 92 90 90 92
89 87 92 93 90 96 88 98 96 93 98 98 99 99 96 98 98 99 100 97 97 98 96 93 98 95 94 92 92 93 93 87 87 85 88 88 88 90 89 89 91 92 91 91
89 92 96 85 90 89 93 98 97 98 99 99 99 100 100 99 98 100 99 94 97 96 96 96 97 95 91 92 88 89 90 89 87 90 90 91 94 94 94 95 96 95 95 96
90 89 94 93 96 98 98 98 98 99 99 98 99 99 100 100 100 100 98 99 91 96 96 97 96 98 97 95 93 90 96 96 95 96 96 96 95 96 96 96 96 95 95 96
92 85 98 96 98 98 98 98 98 99 100 99 99 100 99 98 98 98 96 94 97 95 98 98 97 97 95 94 95 96 96 96 96 95 95 96 95 94 95 96 95 94 95 95
85 90 95 95 96 94 97 98 98 98 98 99 98 97 94 97 96 94 96 86 95 97 97 97 96 96 96 96 96 97 96 96 96 95 95 95 95 95 96 94 94 95 94 95
90 97 97 97 98 98 98 99 97 98 98 100 94 92 97 84 92 93 92 97 97 96 96 95 96 96 96 96 95 95 94 93 94 94 94 95 95 90 84 91 94 92 93 94

GFSNW_sfc_rhum_063.txt.gz
RH
80 81 82 83 86 88 94 98 100 89 77 99 96 82 62 58 55 52 55 59 55 54 49 48 49 48 40 56 60 68 58 54 53 38 28 30 32 38 40 58 62 72 71 48
80 80 81 82 84 88 99 99 98 93 77 98 95 68 67 62 66 61 60 63 58 51 52 52 50 52 46 61 63 69 63 78 72 52 40 36 35 33 34 49 61 57 72 57
79 80 81 82 84 86 98 99 100 100 97 87 74 79 72 72 59 62 62 65 61 61 63 57 58 55 43 53 68 80 76 80 80 86 57 43 46 35 30 41 60 53 50 46
83 84 83 84 84 86 98 100 98 92 99 96 80 69 68 68 67 60 61 64 60 68 78 65 62 53 55 51 73 76 81 88 90 85 69 54 46 37 33 34 40 50 44 47
83 84 84 84 85 88 99 100 99 93 90 83 86 77 75 64 59 62 70 76 64 63 66 61 66 58 58 58 66 78 80 87 91 85 64 62 54 37 32 38 41 43 39 45
84 85 85 85 87 91 98 96 94 88 87 91 97 84 72 69 63 62 51 64 67 71 61 54 53 59 59 68 80 82 89 91 92 78 77 66 71 52 39 32 30 43 49 42
86 86 86 86 86 91 96 96 95 98 98 89 83 72 73 70 64 68 59 56 66 57 51 66 74 83 81 84 90 79 92 92 96 98 84 91 65 44 40 36 31 36 40 37
88 89 89 89 89 90 97 99 96 94 96 92 78 77 73 65 64 67 60 55 52 53 63 72 74 83 87 87 88 93 81 92 98 95 88 68 52 50 46 48 41 32 33 31
86 87 91 90 90 90 97 97 97 98 97 95 76 78 71 92 79 76 69 59 58 63 73 80 87 83 70 90 87 86 90 84 91 99 95 87 51 43 30 45 62 40 34 31
84 84 81 81 86 91 95 98 90 97 100 91 79 88 83 64 76 82 72 66 72 64 92 96 86 88 61 66 96 97 98 100 97 98 97 87 64 74 68 90 74 66 66 61
84 85 84 83 84 85 96 99 93 96 100 93 86 79 79 65 65 81 76 77 84 91 91 91 91 96 80 71 69 88 95 98 99 98 99 91 70 68 91 80 71 71 65 64
89 86 87 86 84 82 85 99 95 90 97 96 81 69 74 82 61 62 71 66 78 82 87 93 87 94 96 84 84 65 80 67 86 83 77 62 65 69 72 75 81 61 74 60
91 90 89 88 87 85 83 94 96 97 98 98 94 88 82 80 82 69 84 82 66 83 83 92 89 82 82 87 86 65 57 63 76 76 59 53 48 57 58 70 68 66 64 62
90 90 91 90 89 87 84 95 93 90 97 100 90 69 71 71 85 86 83 78 84 83 95 93 97 98 78 86 63 65 55 56 52 50 54 50 54 48 48 56 60 55 59 58
90 88 89 90 90 89 94 95 93 70 80 95 94 88 66 65 82 80 87 89 90 96 95 98 96 93 86 91 88 86 93 86 92 89 85 96 66 57 58 59 60 56 55 54
94 91 89 88 89 88 98 99 97 78 90 92 96 90 84 73 81 84 90 90 94 92 96 98 96 90 90 94 75 87 82 83 86 91 85 88 83 68 67 66 70 69 78 77
91 90 89 88 88 94 97 97 94 77 88 97 99 98 96 84 90 92 94 90 95 93 97 99 96 95 90 99 99 84 79 79 82 83 88 89 84 84 78 73 77 70 69 72
90 91 91 88 89 93 99 97 81 80 93 95 100 99 98 86 97 96 96 98 96 95 95 96 98 94 96 96 94 83 79 82 81 82 84 86 85 80 81 78 76 81 84 82
90 89 87 94 96 97 99 83 77 96 95 99 98 96 99 93 96 96 98 94 100 97 99 98 96 98 97 97 95 90 89 94 92 83 82 86 89 90 88 86 88 91 91 86
78 86 94 100 100 94 85 94 97 99 98 96 98 96 99 96 98 100 98 99 99 100 96 94 95 97 90 87 82 93 93 98 96 95 94 94 94 95 95 94 89 87 87 86
94 98 100 99 96 94 96 99 99 97 94 96 97 92 98 96 98 99 98 99 99 98 98 94 97 96 96 90 85 82 88 89 94 96 86 85 88 90 90 90 89 87 87 90
88 92 92 90 87 89 88 99 96 95 92 96 99 100 96 98 97 98 99 99 98 99 93 95 95 96 92 88 85 87 88 87 90 85 86 86 84 84 84 84 88 90 91 94
87 85 82 79 88 88 92 97 96 98 98 98 99 100 99 99 98 99 99 97 99 97 96 96 97 94 90 92 85 88 90 90 90 92 90 88 91 88 88 93 95 94 94 96
89 88 93 92 95 98 98 98 98 98 98 98 98 99 99 100 99 99 97 98 90 96 96 98 97 97 97 95 93 88 95 95 95 96 95 95 94 95 93 94 94 90 94 95
90 83 98 96 98 98 98 98 98 98 98 98 99 99 96 98 97 97 95 92 98 96 98 98 97 96 94 94 94 95 95 95 95 95 94 95 92 91 94 94 93 92 94 94
86 89 95 95 96 95 97 98 98 97 97 99 96 97 96 97 96 94 96 85 97 98 98 97 95 95 95 95 96 96 96 95 94 94 95 95 94 93 94 92 92 94 93 94
92 97 96 99 99 98 98 98 97 98 98 100 91 93 98 85 93 93 91 97 96 96 96 95 96 96 96 96 96 96 94 93 94 94 94 95 95 92 84 90 94 91 92 94

GFSNW_sfc_rhum_069.txt.gz
RH
68 68 68 68 70 79 85 95 99 96 92 100 100 96 70 56 49 51 55 60 62 58 52 48 45 52 53 39 60 59 62 59 53 37 30 30 30 36 39 52 47 58 55 42
71 69 69 70 76 76 97 99 97 98 87 98 96 98 88 58 62 55 57 65 62 56 53 51 46 54 46 46 45 65 59 73 74 54 43 50 56 49 50 48 49 48 66 44
68 66 70 72 77 75 95 100 99 97 99 94 73 91 86 77 60 59 64 66 61 61 62 57 59 55 47 52 42 67 75 63 85 88 88 76 75 64 57 54 66 50 45 36
67 67 70 73 75 76 94 100 99 97 98 93 92 78 76 75 66 57 61 68 64 66 69 64 59 52 50 44 51 69 69 69 62 59 60 72 62 60 49 44 50 64 49 39
71 72 75 77 77 79 95 100 99 98 99 88 97 83 97 74 64 65 68 71 66 66 67 60 54 55 49 52 53 61 60 77 83 85 68 64 67 55 49 43 48 48 42 44
76 76 79 79 78 79 96 93 93 98 78 85 99 95 78 83 64 62 55 59 64 69 65 58 56 56 56 54 59 61 65 82 86 77 71 64 68 61 47 44 42 46 48 38
77 79 80 80 79 80 93 95 96 98 93 97 89 95 76 74 65 67 58 54 66 59 52 60 61 67 65 64 64 60 64 72 89 85 78 78 36 40 42 48 42 39 37 38
81 81 84 85 82 80 96 93 99 99 94 78 92 92 91 71 65 67 65 56 50 57 62 96 85 71 78 77 68 68 61 72 90 90 81 56 40 32 38 45 39 56 68 60
87 90 90 89 84 80 93 94 93 99 98 93 69 97 88 84 91 87 72 58 74 62 96 98 86 76 64 66 74 78 77 72 84 98 85 83 46 47 58 46 54 57 59 55
84 80 88 90 85 82 92 96 90 98 100 89 76 82 89 76 80 90 80 80 95 77 98 91 87 75 60 69 71 87 90 94 91 95 86 69 52 48 66 61 54 54 52 50
84 80 86 90 87 84 91 96 93 97 100 94 79 69 79 95 88 91 83 95 97 99 97 90 84 84 70 61 64 82 73 90 88 82 90 83 50 57 55 44 50 52 49 47
83 81 82 88 91 90 90 98 94 92 98 97 87 78 72 67 68 72 80 74 80 81 85 84 75 87 87 69 73 66 69 67 74 72 66 56 59 63 51 55 59 56 52 48
88 84 79 85 87 90 93 97 96 98 100 99 98 96 81 75 77 73 93 75 71 81 75 88 83 78 70 86 75 63 61 58 68 62 47 43 38 45 67 70 72 67 62 55
89 90 88 85 87 86 90 98 95 96 98 100 98 78 89 75 80 81 82 83 78 82 87 88 90 84 68 73 60 63 52 57 60 54 48 63 44 72 80 73 71 68 63 66
91 91 94 88 87 87 93 96 97 94 92 98 97 82 70 74 77 81 87 89 88 90 98 100 96 83 85 89 89 87 70 63 70 61 84 90 79 72 79 76 75 69 70 69
90 90 91 92 88 92 97 100 96 96 96 98 98 84 83 80 79 77 87 88 92 96 98 99 91 80 80 93 87 79 76 74 76 84 76 79 76 80 75 76 74 70 70 68
86 89 93 93 89 95 97 95 95 91 94 96 90 93 88 84 85 86 85 85 95 97 98 99 93 89 84 97 88 89 82 77 75 72 80 82 82 91 76 74 70 70 68 70
85 89 91 94 92 86 92 98 84 82 94 92 98 96 98 82 94 98 90 96 97 96 98 97 98 95 98 100 90 79 75 73 74 78 79 90 83 77 79 73 71 76 77 77
86 89 93 92 96 99 99 84 85 94 90 98 99 96 99 92 95 94 98 94 100 96 94 95 94 97 98 96 94 86 80 84 83 76 77 92 95 88 88 88 84 83 91 86
89 90 95 100 99 90 87 93 99 96 94 98 95 98 100 88 99 100 100 100 100 98 94 99 96 92 90 84 79 80 85 84 84 84 82 86 92 90 93 94 94 94 92 93
95 99 100 97 84 93 97 100 98 99 100 99 95 99 97 98 99 100 99 100 98 96 96 95 91 90 90 81 74 75 76 77 82 87 89 88 91 91 91 91 91 90 88 86
94 95 92 88 93 95 97 98 98 95 95 97 99 100 95 100 99 99 97 98 99 96 93 91 92 89 83 77 78 79 78 77 79 79 82 87 83 87 90 90 90 91 91 93
80 79 71 72 83 90 93 95 94 96 97 97 99 100 100 97 97 99 100 89 96 93 94 92 91 89 81 82 77 81 82 84 81 86 89 83 85 88 90 93 94 94 94 95
83 84 92 91 95 96 96 94 96 95 96 97 98 99 95 96 94 97 88 95 85 92 93 90 92 94 94 90 90 86 94 93 93 94 94 94 94 95 95 95 95 93 94 95
87 79 99 96 95 95 96 96 96 94 97 98 99 94 88 94 94 94 87 91 92 87 92 92 93 94 94 94 93 92 92 94 95 94 94 95 94 93 94 95 95 94 94 94
75 87 92 94 95 96 97 96 97 93 96 95 90 94 92 94 92 88 94 90 90 93 93 94 93 94 95 95 95 95 96 95 95 95 94 94 94 94 95 93 93 94 94 94
86 97 97 97 96 97 97 96 95 93 93 98 87 89 95 90 92 92 91 95 95 95 94 94 95 95 95 96 95 95 94 94 94 93 92 93 93 90 86 88 92 90 90 93

GFSNW_sfc_rhum_072.txt.gz
RH
68 70 70 67 68 71 75 80 92 63 83 99 99 93 60 52 36 33 41 48 48 46 41 42 31 37 38 30 32 49 48 46 41 35 26 23 23 30 30 41 38 35 37 31
67 76 73 70 70 71 70 83 72 70 91 97 96 91 66 44 41 36 39 43 47 43 44 44 37 38 36 36 32 44 45 52 41 31 29 32 28 34 34 34 37 43 60 38
68 74 77 70 73 76 87 92 97 73 97 92 68 66 66 88 42 39 43 43 50 49 48 40 42 38 31 34 31 68 58 46 63 50 46 45 56 45 42 42 48 39 34 30
68 72 75 69 74 78 92 98 94 57 93 90 98 57 56 56 51 44 41 46 49 48 53 47 47 38 37 32 49 43 61 49 43 43 36 38 39 38 35 38 36 45 36 33
70 69 72 73 75 78 97 99 78 75 78 62 98 97 92 56 41 45 48 52 45 48 53 46 43 41 41 44 36 44 48 47 55 44 37 35 40 33 31 30 29 33 34 31
71 71 76 75 76 81 98 95 68 82 68 55 72 80 61 82 48 44 37 44 50 56 47 42 42 43 44 44 47 50 51 55 53 52 48 45 55 41 30 26 24 29 34 24
77 74 74 76 77 81 80 81 76 89 81 71 60 44 62 72 54 56 44 41 52 50 45 48 49 49 47 49 48 44 51 56 60 63 67 68 28 26 28 33 26 23 23 29
84 78 77 77 78 80 94 75 87 86 87 53 49 60 93 64 54 62 50 44 41 56 69 75 64 61 61 54 49 48 47 50 70 67 50 35 28 24 24 26 23 32 30 32
86 82 81 81 84 85 92 93 81 97 99 70 40 45 57 91 75 64 56 74 54 74 91 74 69 64 50 53 56 44 49 49 62 68 62 66 34 35 36 33 34 31 35 33
85 84 84 86 87 88 94 98 86 91 99 70 84 57 52 69 93 73 69 95 97 91 98 84 70 60 42 51 59 94 82 78 83 71 72 48 32 25 41 50 53 35 33 33
86 86 86 89 90 89 96 96 90 90 90 72 54 59 55 53 64 68 87 95 98 100 97 77 61 66 49 44 42 71 78 75 83 73 75 77 34 40 49 50 40 37 38 38
85 86 87 85 81 86 92 98 93 85 90 93 62 52 49 53 51 67 88 70 83 70 77 62 58 68 64 45 52 36 66 48 53 47 47 40 43 42 35 49 53 49 52 48
87 86 85 84 81 89 92 97 94 97 98 91 79 80 60 62 61 67 97 84 74 74 54 72 64 75 44 68 49 40 36 31 49 44 34 31 28 34 49 51 55 52 49 50
89 89 87 82 84 87 90 98 94 92 98 100 94 54 57 52 60 68 72 66 68 68 71 85 83 72 44 52 40 42 31 33 40 39 33 31 29 41 55 58 54 54 51 51
88 91 88 86 86 88 94 96 93 87 78 90 73 70 57 64 71 78 75 82 81 86 95 99 92 56 62 60 62 49 32 35 47 43 53 60 54 50 60 62 60 58 58 56
89 91 89 90 90 88 97 100 98 86 91 96 89 65 70 69 80 88 88 84 90 95 97 99 94 67 68 78 59 36 56 58 61 62 64 69 67 59 66 66 61 58 57 56
92 89 90 92 93 94 96 91 86 94 87 93 86 77 73 65 71 82 86 87 96 97 98 98 97 73 70 100 71 72 66 60 59 62 69 67 74 88 71 68 60 59 56 57
87 90 93 93 86 87 97 91 90 84 84 76 92 88 90 70 97 98 83 97 97 97 97 95 90 78 96 100 81 66 63 58 58 67 63 70 81 76 76 72 69 69 70 70
92 94 94 94 95 98 98 83 85 87 81 84 97 92 96 73 75 73 82 90 100 91 100 99 93 100 99 94 89 78 75 76 73 62 58 70 84 83 84 86 83 81 83 80
86 87 95 100 97 90 88 95 99 98 97 89 88 88 100 74 80 100 99 96 100 100 95 97 97 90 82 72 69 72 81 82 78 82 73 75 79 76 81 88 89 85 85 88
85 97 100 98 90 93 96 100 90 96 99 86 79 84 92 94 87 92 99 99 93 91 96 98 90 86 88 68 66 66 66 65 69 72 75 73 76 77 80 86 86 86 87 90
80 93 92 92 86 88 94 98 100 87 88 94 100 99 96 98 96 94 99 100 98 99 84 93 87 84 69 66 69 72 71 67 68 67 71 72 73 75 80 82 82 86 87 91
53 58 61 64 82 88 86 93 92 92 94 97 99 100 100 99 100 100 98 93 95 88 95 87 84 77 69 70 67 71 68 70 71 77 76 74 82 82 81 88 91 92 92 93
68 74 85 87 86 84 86 85 89 92 96 97 98 94 91 97 100 100 95 96 79 90 88 85 83 86 84 86 86 78 89 91 91 91 91 92 91 92 92 92 93 91 92 94
72 65 90 86 87 86 89 90 89 89 94 97 92 86 74 89 91 88 86 83 85 78 85 84 86 91 90 90 89 91 91 92 91 92 92 92 92 89 91 92 92 90 92 91
65 77 85 87 91 92 92 92 93 89 93 90 79 88 85 90 82 80 88 75 81 86 87 90 89 92 93 92 91 91 92 91 92 92 92 91 91 91 92 91 90 92 91 91
75 90 87 89 88 92 92 92 90 85 92 96 77 84 91 74 80 81 81 91 92 92 92 91 93 93 93 93 93 94 93 92 92 91 90 91 91 90 86 88 91 88 87 83

GFSNW_sfc_rhum_075.txt.gz
RH
70 66 65 74 71 70 70 50 90 42 55 94 88 84 46 40 28 23 30 35 38 38 32 35 31 30 38 28 30 44 25 45 42 34 21 24 24 25 31 44 44 36 38 34
68 68 69 73 75 75 41 72 54 48 76 93 82 57 43 38 34 28 27 34 28 29 36 40 31 28 30 28 29 43 38 39 46 46 35 24 27 26 26 30 32 50 87 39
70 68 68 74 72 75 66 86 97 55 84 80 71 54 51 45 34 33 26 26 27 30 38 33 37 33 26 28 30 60 50 49 42 40 43 33 32 30 32 32 45 38 36 31
66 67 67 75 73 76 69 88 86 52 89 72 66 73 81 45 44 35 32 37 30 37 41 34 34 30 30 28 43 32 43 73 53 44 44 36 36 34 30 31 32 41 37 32
72 70 72 74 77 76 92 99 75 46 54 54 60 58 71 62 32 31 38 39 31 30 38 38 38 36 36 38 30 35 34 42 39 53 33 32 37 33 31 28 28 27 25 26
81 75 74 75 79 78 88 96 57 67 56 45 62 66 55 50 50 60 38 33 33 43 40 36 38 40 46 41 41 43 46 44 37 49 29 36 51 35 30 29 27 27 32 30
85 84 76 75 78 78 61 62 54 84 77 53 41 39 50 44 54 67 52 40 42 37 40 39 40 41 40 42 41 39 48 46 44 55 53 62 27 20 21 24 23 20 19 20
85 86 89 75 78 78 85 57 90 78 86 40 37 40 41 49 52 59 84 74 37 48 55 67 59 62 60 54 41 41 39 46 61 66 49 32 23 19 21 24 21 22 23 24
85 83 84 82 77 79 86 81 70 90 93 59 32 34 34 50 59 87 56 72 58 58 70 92 74 59 48 48 41 36 40 44 57 58 60 55 26 27 27 23 32 26 27 29
85 85 89 84 77 76 83 74 76 91 100 49 57 42 38 32 54 82 66 88 87 73 98 92 70 56 36 52 56 64 67 76 74 66 62 39 24 22 27 43 50 34 31 31
86 86 87 90 80 79 87 93 74 88 97 54 44 45 61 55 48 69 92 96 98 100 100 79 61 61 50 39 39 56 63 77 79 69 85 68 24 26 41 49 41 38 37 37
88 87 87 85 88 87 89 98 92 76 92 57 45 42 40 46 62 86 76 72 83 70 82 59 55 64 59 43 50 37 62 47 52 41 41 33 32 40 41 42 43 42 42 39
90 88 87 86 85 88 92 97 95 97 98 84 62 58 50 44 42 53 86 90 69 72 56 82 86 82 44 63 45 40 35 51 62 75 41 58 33 25 36 41 45 42 42 42
89 89 88 86 85 84 89 98 95 94 97 96 59 38 47 42 44 52 58 60 69 77 82 92 82 75 39 49 40 40 31 32 33 32 28 24 24 36 43 46 44 45 45 47
90 90 90 86 84 83 91 96 94 77 53 82 56 39 43 38 43 54 65 73 73 96 98 100 90 51 58 50 51 52 28 33 42 44 57 54 44 46 51 52 54 53 52 50
92 89 90 89 86 86 98 100 97 79 73 78 89 45 45 51 47 54 58 73 92 95 99 98 67 50 70 82 58 35 37 47 50 55 52 54 50 54 59 62 61 58 53 50
90 87 91 90 89 95 98 90 80 83 85 93 80 78 58 50 62 75 78 81 96 93 98 98 92 65 62 94 73 90 55 49 47 52 54 53 58 72 63 62 62 60 53 54
88 90 89 91 86 88 92 80 86 78 94 92 98 87 76 62 97 98 92 98 97 97 96 97 93 66 87 100 73 57 54 51 54 55 49 61 70 68 67 64 61 64 65 68
90 92 93 94 94 97 97 86 84 91 93 94 94 84 92 70 78 78 90 77 100 88 99 86 72 79 100 93 87 70 67 67 64 56 50 58 71 67 68 68 69 70 73 73
91 90 96 100 95 93 87 93 99 99 93 76 85 79 96 66 73 81 93 88 100 100 97 98 100 92 78 61 56 61 71 69 68 73 72 71 71 72 75 79 77 77 79 81
92 99 100 97 88 91 97 100 99 99 100 75 74 74 81 84 84 93 93 96 91 94 96 99 97 88 84 60 57 57 58 57 60 65 68 68 71 75 76 75 74 74 76 82
77 92 93 91 92 100 95 97 92 78 86 80 85 87 90 94 93 82 99 100 90 98 81 97 94 79 64 63 64 64 64 63 64 62 66 67 69 74 77 77 81 82 82 86
57 56 68 65 80 95 99 94 84 95 96 96 100 99 100 99 98 100 94 100 97 81 99 92 87 81 74 74 67 67 64 69 69 73 72 71 79 82 84 91 92 90 89 91
64 82 90 90 91 83 85 91 94 94 98 100 99 99 92 99 100 100 100 97 76 89 89 90 87 86 84 80 79 75 86 86 86 86 87 89 90 92 93 93 92 90 90 92
68 65 89 86 85 85 91 94 94 91 98 100 91 85 76 93 96 87 87 88 84 80 88 87 82 81 80 82 83 87 88 89 90 91 90 92 92 91 92 92 92 89 91 91
66 77 86 86 94 95 94 97 99 92 97 95 76 89 95 90 83 83 87 72 83 86 86 86 81 88 90 92 93 93 93 92 92 91 90 90 90 89 90 89 90 92 91 91
73 88 84 88 87 93 93 92 92 89 98 94 75 91 91 68 79 80 76 89 89 87 88 89 92 93 93 93 93 94 93 92 92 91 90 90 90 89 86 87 91 87 84 78